Observation data for Rotan on 11/09/2019      Previous  Date       Current Mesonet Observations  Soil Data  Daily Summary Page  Observations in Plain Language
KRO1 090600Z 21006KT 06/05 A303 RMK A01 T00630047  RH  090%=      5-min Rain = 0
KRO1 090601Z 21006KT 06/05 A303 RMK A01 T00630047  RH  090%=      5-min Rain = 0
KRO1 090602Z 21006KT 06/05 A303 RMK A01 T00630048  RH  090%=      5-min Rain = 0
KRO1 090603Z 21006KT 06/05 A303 RMK A01 T00630048  RH  090%=      5-min Rain = 0
KRO1 090604Z 21006KT 06/05 A303 RMK A01 T00630047  RH  090%=      5-min Rain = 0
KRO1 090605Z 21007KT 06/05 A303 RMK A01 T00620047  RH  090%=      5-min Rain = 0
KRO1 090606Z 21006KT 06/05 A303 RMK A01 T00620047  RH  090%=      5-min Rain = 0
KRO1 090607Z 21006KT 06/05 A303 RMK A01 T00630048  RH  090%=      5-min Rain = 0
KRO1 090608Z 21007KT 06/05 A303 RMK A01 T00630047  RH  090%=      5-min Rain = 0
KRO1 090609Z 20007KT 06/05 A303 RMK A01 T00630047  RH  090%=      5-min Rain = 0
KRO1 090610Z 21007KT 06/05 A303 RMK A01 T00630048  RH  090%=      5-min Rain = 0
KRO1 090611Z 21007KT 06/05 A303 RMK A01 T00630048  RH  090%=      5-min Rain = 0
KRO1 090612Z 21008KT 06/05 A303 RMK A01 T00630048  RH  090%=      5-min Rain = 0
KRO1 090613Z 21007KT 06/05 A303 RMK A01 T00630048  RH  090%=      5-min Rain = 0
KRO1 090614Z 21007KT 06/05 A303 RMK A01 T00630048  RH  090%=      5-min Rain = 0
KRO1 090615Z 21008KT 06/05 A303 RMK A01 T00630048  RH  090%=      5-min Rain = 0
KRO1 090616Z 21008KT 06/05 A303 RMK A01 T00630048  RH  090%=      5-min Rain = 0
KRO1 090617Z 21007KT 06/05 A303 RMK A01 T00620047  RH  090%=      5-min Rain = 0
KRO1 090618Z 21008KT 06/05 A303 RMK A01 T00620047  RH  090%=      5-min Rain = 0
KRO1 090619Z 21008KT 06/05 A303 RMK A01 T00620048  RH  090%=      5-min Rain = 0
KRO1 090620Z 21007KT 06/05 A303 RMK A01 T00620047  RH  090%=      5-min Rain = 0
KRO1 090621Z 21008KT 06/05 A303 RMK A01 T00620047  RH  090%=      5-min Rain = 0
KRO1 090622Z 21008KT 06/05 A303 RMK A01 T00620047  RH  090%=      5-min Rain = 0
KRO1 090623Z 21007KT 06/05 A303 RMK A01 T00620047  RH  090%=      5-min Rain = 0
KRO1 090624Z 21007KT 06/05 A303 RMK A01 T00620047  RH  090%=      5-min Rain = 0
KRO1 090625Z 22006KT 06/05 A303 RMK A01 T00620047  RH  090%=      5-min Rain = 0
KRO1 090626Z 22006KT 06/05 A303 RMK A01 T00620047  RH  090%=      5-min Rain = 0
KRO1 090627Z 23006KT 06/05 A303 RMK A01 T00620047  RH  090%=      5-min Rain = 0
KRO1 090628Z 23006KT 06/05 A303 RMK A01 T00620047  RH  090%=      5-min Rain = 0
KRO1 090629Z 22006KT 06/05 A303 RMK A01 T00630047  RH  090%=      5-min Rain = 0
KRO1 090630Z 23006KT 06/05 A303 RMK A01 T00630047  RH  090%=      5-min Rain = 0
KRO1 090631Z 22005KT 06/05 A303 RMK A01 T00630047  RH  090%=      5-min Rain = 0
KRO1 090632Z 21005KT 06/05 A303 RMK A01 T00630047  RH  090%=      5-min Rain = 0
KRO1 090633Z 22005KT 06/05 A303 RMK A01 T00620047  RH  090%=      5-min Rain = 0
KRO1 090634Z 22005KT 06/05 A303 RMK A01 T00620047  RH  090%=      5-min Rain = 0
KRO1 090635Z 23006KT 06/05 A303 RMK A01 T00620047  RH  090%=      5-min Rain = 0
KRO1 090636Z 21005KT 06/05 A303 RMK A01 T00620047  RH  090%=      5-min Rain = 0
KRO1 090637Z 21005KT 06/05 A303 RMK A01 T00620047  RH  090%=      5-min Rain = 0
KRO1 090638Z 22005KT 06/05 A303 RMK A01 T00620047  RH  090%=      5-min Rain = 0
KRO1 090639Z 23006KT 06/05 A303 RMK A01 T00620047  RH  090%=      5-min Rain = 0
KRO1 090640Z 23005KT 06/05 A303 RMK A01 T00610046  RH  090%=      5-min Rain = 0
KRO1 090641Z 23005KT 06/05 A303 RMK A01 T00610046  RH  090%=      5-min Rain = 0
KRO1 090642Z 23005KT 06/05 A303 RMK A01 T00620047  RH  090%=      5-min Rain = 0
KRO1 090643Z 23005KT 06/05 A303 RMK A01 T00620047  RH  090%=      5-min Rain = 0
KRO1 090644Z 21005KT 06/05 A303 RMK A01 T00620047  RH  090%=      5-min Rain = 0
KRO1 090645Z 23005KT 06/05 A303 RMK A01 T00620047  RH  090%=      5-min Rain = 0
KRO1 090646Z 23005KT 06/05 A303 RMK A01 T00620047  RH  090%=      5-min Rain = 0
KRO1 090647Z 22005KT 06/05 A303 RMK A01 T00620047  RH  090%=      5-min Rain = 0
KRO1 090648Z 23006KT 06/05 A303 RMK A01 T00620048  RH  090%=      5-min Rain = 0
KRO1 090649Z 22005KT 06/05 A303 RMK A01 T00620048  RH  090%=      5-min Rain = 0
KRO1 090650Z 22006KT 06/05 A303 RMK A01 T00620048  RH  090%=      5-min Rain = 0
KRO1 090651Z 22006KT 06/05 A303 RMK A01 T00620048  RH  091%=      5-min Rain = 0
KRO1 090652Z 23006KT 06/05 A303 RMK A01 T00620048  RH  091%=      5-min Rain = 0
KRO1 090653Z 21005KT 06/05 A303 RMK A01 T00630049  RH  091%=      5-min Rain = 0
KRO1 090654Z 23006KT 06/05 A303 RMK A01 T00630049  RH  091%=      5-min Rain = 0
KRO1 090655Z 22006KT 06/05 A303 RMK A01 T00630049  RH  091%=      5-min Rain = 0
KRO1 090656Z 23007KT 06/05 A3029 RMK A01 T00630049  RH  091%=      5-min Rain = 0
KRO1 090657Z 22005KT 06/05 A3029 RMK A01 T00640049  RH  091%=      5-min Rain = 0
KRO1 090658Z 22009KT 06/05 A3029 RMK A01 T00640049  RH  090%=      5-min Rain = 0
KRO1 090659Z 22009KT 06/05 A3029 RMK A01 T00640049  RH  090%=      5-min Rain = 0
KRO1 090700Z 23009KT 06/05 A3029 RMK A01 T00640049  RH  090%=      5-min Rain = 0
KRO1 090701Z 23008KT 06/05 A3029 RMK A01 T00640049  RH  090%=      5-min Rain = 0
KRO1 090702Z 22009KT 06/05 A3029 RMK A01 T00640049  RH  090%=      5-min Rain = 0
KRO1 090703Z 23009KT 06/05 A3029 RMK A01 T00640049  RH  090%=      5-min Rain = 0
KRO1 090704Z 23009KT 06/05 A3029 RMK A01 T00640049  RH  090%=      5-min Rain = 0
KRO1 090705Z 22008KT 07/05 A3029 RMK A01 T00650050  RH  090%=      5-min Rain = 0
KRO1 090706Z 23009KT 07/05 A3029 RMK A01 T00650049  RH  090%=      5-min Rain = 0
KRO1 090707Z 23010KT 07/05 A3029 RMK A01 T00650049  RH  090%=      5-min Rain = 0
KRO1 090708Z 22010KT 07/05 A3029 RMK A01 T00650049  RH  089%=      5-min Rain = 0
KRO1 090709Z 23009KT 07/05 A3029 RMK A01 T00650049  RH  089%=      5-min Rain = 0
KRO1 090710Z 23010KT 07/05 A3029 RMK A01 T00650049  RH  089%=      5-min Rain = 0
KRO1 090711Z 23010KT 07/05 A3029 RMK A01 T00650049  RH  089%=      5-min Rain = 0
KRO1 090712Z 23009KT 07/05 A3029 RMK A01 T00650049  RH  089%=      5-min Rain = 0
KRO1 090713Z 23009KT 07/05 A3029 RMK A01 T00660049  RH  089%=      5-min Rain = 0
KRO1 090714Z 23010KT 07/05 A3029 RMK A01 T00650048  RH  089%=      5-min Rain = 0
KRO1 090715Z 23010KT 07/05 A3029 RMK A01 T00660049  RH  089%=      5-min Rain = 0
KRO1 090720Z 24007KT 07/05 A3029 RMK A01 T00650048  RH  089%=      5-min Rain = 0
KRO1 090721Z 23008KT 07/05 A3029 RMK A01 T00650048  RH  089%=      5-min Rain = 0
KRO1 090722Z 24008KT 07/05 A3029 RMK A01 T00650048  RH  089%=      5-min Rain = 0
KRO1 090723Z 24007KT 07/05 A3029 RMK A01 T00650048  RH  089%=      5-min Rain = 0
KRO1 090724Z 23008KT 07/05 A3029 RMK A01 T00650048  RH  089%=      5-min Rain = 0
KRO1 090725Z 24007KT 07/05 A3029 RMK A01 T00650048  RH  089%=      5-min Rain = 0
KRO1 090726Z 23008KT 07/05 A3029 RMK A01 T00650048  RH  089%=      5-min Rain = 0
KRO1 090727Z 24007KT 07/05 A3029 RMK A01 T00660048  RH  089%=      5-min Rain = 0
KRO1 090728Z 24009KT 07/05 A3029 RMK A01 T00660048  RH  089%=      5-min Rain = 0
KRO1 090729Z 23009KT 07/05 A3029 RMK A01 T00660048  RH  089%=      5-min Rain = 0
KRO1 090730Z 24008KT 07/05 A3029 RMK A01 T00660048  RH  088%=      5-min Rain = 0
KRO1 090731Z 24009KT 07/05 A3029 RMK A01 T00660048  RH  088%=      5-min Rain = 0
KRO1 090732Z 24008KT 07/05 A3029 RMK A01 T00660048  RH  088%=      5-min Rain = 0
KRO1 090733Z 23008KT 07/05 A3029 RMK A01 T00660048  RH  088%=      5-min Rain = 0
KRO1 090734Z 24008KT 07/05 A3029 RMK A01 T00670048  RH  088%=      5-min Rain = 0
KRO1 090735Z 24008KT 07/05 A3029 RMK A01 T00660048  RH  088%=      5-min Rain = 0
KRO1 090736Z 23009KT 07/05 A3029 RMK A01 T00660048  RH  088%=      5-min Rain = 0
KRO1 090737Z 23009KT 07/05 A3029 RMK A01 T00670048  RH  088%=      5-min Rain = 0
KRO1 090738Z 24009KT 07/05 A3029 RMK A01 T00670048  RH  088%=      5-min Rain = 0
KRO1 090739Z 23009KT 07/05 A3029 RMK A01 T00670048  RH  088%=      5-min Rain = 0
KRO1 090740Z 23009KT 07/05 A3029 RMK A01 T00670048  RH  088%=      5-min Rain = 0
KRO1 090741Z 23009KT 07/05 A3029 RMK A01 T00670048  RH  088%=      5-min Rain = 0
KRO1 090742Z 23009KT 07/05 A3029 RMK A01 T00670048  RH  088%=      5-min Rain = 0
KRO1 090743Z 23009KT 07/05 A3029 RMK A01 T00670048  RH  088%=      5-min Rain = 0
KRO1 090744Z 23008KT 07/05 A3028 RMK A01 T00670048  RH  088%=      5-min Rain = 0
KRO1 090745Z 23009KT 07/05 A3028 RMK A01 T00670048  RH  088%=      5-min Rain = 0
KRO1 090746Z 23009KT 07/05 A3028 RMK A01 T00670048  RH  088%=      5-min Rain = 0
KRO1 090747Z 23007KT 07/05 A3028 RMK A01 T00670048  RH  088%=      5-min Rain = 0
KRO1 090748Z 22007KT 07/05 A3028 RMK A01 T00670048  RH  088%=      5-min Rain = 0
KRO1 090749Z 22007KT 07/05 A3028 RMK A01 T00670048  RH  088%=      5-min Rain = 0
KRO1 090750Z 22006KT 07/05 A3028 RMK A01 T00660048  RH  088%=      5-min Rain = 0
KRO1 090751Z 22006KT 07/05 A3028 RMK A01 T00660047  RH  088%=      5-min Rain = 0
KRO1 090752Z 22006KT 07/05 A3028 RMK A01 T00650047  RH  088%=      5-min Rain = 0
KRO1 090753Z 22007KT 07/05 A3028 RMK A01 T00650047  RH  088%=      5-min Rain = 0
KRO1 090754Z 23006KT 07/05 A3028 RMK A01 T00660048  RH  088%=      5-min Rain = 0
KRO1 090755Z 22006KT 07/05 A3028 RMK A01 T00650047  RH  088%=      5-min Rain = 0
KRO1 090756Z 22006KT 07/05 A3028 RMK A01 T00650047  RH  088%=      5-min Rain = 0
KRO1 090757Z 22006KT 07/05 A3028 RMK A01 T00650047  RH  089%=      5-min Rain = 0
KRO1 090758Z 22006KT 07/05 A3028 RMK A01 T00650047  RH  089%=      5-min Rain = 0
KRO1 090759Z 22007KT 07/05 A3028 RMK A01 T00650047  RH  089%=      5-min Rain = 0
KRO1 090800Z 23007KT 07/05 A3028 RMK A01 T00650047  RH  089%=      5-min Rain = 0
KRO1 090801Z 23007KT 07/05 A3028 RMK A01 T00650047  RH  089%=      5-min Rain = 0
KRO1 090802Z 23007KT 07/05 A3028 RMK A01 T00650047  RH  089%=      5-min Rain = 0
KRO1 090803Z 22007KT 07/05 A3028 RMK A01 T00650047  RH  089%=      5-min Rain = 0
KRO1 090804Z 23007KT 07/05 A3028 RMK A01 T00650048  RH  089%=      5-min Rain = 0
KRO1 090805Z 23007KT 06/05 A3028 RMK A01 T00640047  RH  089%=      5-min Rain = 0
KRO1 090806Z 25006KT 06/05 A3028 RMK A01 T00640047  RH  089%=      5-min Rain = 0
KRO1 090807Z 25007KT 06/05 A3028 RMK A01 T00640047  RH  089%=      5-min Rain = 0
KRO1 090808Z 25006KT 07/05 A3028 RMK A01 T00650048  RH  089%=      5-min Rain = 0
KRO1 090809Z 23006KT 07/05 A3028 RMK A01 T00650047  RH  088%=      5-min Rain = 0
KRO1 090810Z 25006KT 07/05 A3028 RMK A01 T00650048  RH  088%=      5-min Rain = 0
KRO1 090811Z 25006KT 07/05 A3028 RMK A01 T00650047  RH  088%=      5-min Rain = 0
KRO1 090812Z 23007KT 07/05 A3028 RMK A01 T00650047  RH  089%=      5-min Rain = 0
KRO1 090813Z 24006KT 07/05 A3028 RMK A01 T00650047  RH  089%=      5-min Rain = 0
KRO1 090814Z 25006KT 07/05 A3028 RMK A01 T00650047  RH  089%=      5-min Rain = 0
KRO1 090815Z 24006KT 07/05 A3028 RMK A01 T00650047  RH  089%=      5-min Rain = 0
KRO1 090816Z 23005KT 07/05 A3028 RMK A01 T00650047  RH  089%=      5-min Rain = 0
KRO1 090817Z 25006KT 06/05 A3028 RMK A01 T00640047  RH  089%=      5-min Rain = 0
KRO1 090818Z 25006KT 06/05 A3028 RMK A01 T00640047  RH  089%=      5-min Rain = 0
KRO1 090819Z 24006KT 06/05 A3028 RMK A01 T00640047  RH  089%=      5-min Rain = 0
KRO1 090820Z 25006KT 06/05 A3028 RMK A01 T00630047  RH  089%=      5-min Rain = 0
KRO1 090821Z 23005KT 06/05 A3028 RMK A01 T00630047  RH  089%=      5-min Rain = 0
KRO1 090822Z 24005KT 06/05 A3028 RMK A01 T00630047  RH  089%=      5-min Rain = 0
KRO1 090823Z 26005KT 06/05 A3028 RMK A01 T00620047  RH  090%=      5-min Rain = 0
KRO1 090824Z 26006KT 06/05 A3027 RMK A01 T00620046  RH  090%=      5-min Rain = 0
KRO1 090825Z 26005KT 06/05 A3027 RMK A01 T00620046  RH  090%=      5-min Rain = 0
KRO1 090826Z 26005KT 06/05 A3027 RMK A01 T00610046  RH  090%=      5-min Rain = 0
KRO1 090827Z 26005KT 06/05 A3027 RMK A01 T00610046  RH  090%=      5-min Rain = 0
KRO1 090828Z 27005KT 06/05 A3027 RMK A01 T00610046  RH  090%=      5-min Rain = 0
KRO1 090829Z 27005KT 06/05 A3027 RMK A01 T00600046  RH  090%=      5-min Rain = 0
KRO1 090830Z 27005KT 06/05 A3027 RMK A01 T00600045  RH  090%=      5-min Rain = 0
KRO1 090831Z 27005KT 06/05 A3027 RMK A01 T00590045  RH  091%=      5-min Rain = 0
KRO1 090832Z 27005KT 06/05 A3027 RMK A01 T00590045  RH  091%=      5-min Rain = 0
KRO1 090833Z 27004KT 06/05 A3027 RMK A01 T00590046  RH  091%=      5-min Rain = 0
KRO1 090834Z 27005KT 06/05 A3027 RMK A01 T00580045  RH  091%=      5-min Rain = 0
KRO1 090835Z 27004KT 06/04 A3027 RMK A01 T00580044  RH  091%=      5-min Rain = 0
KRO1 090836Z 27004KT 06/04 A3027 RMK A01 T00570044  RH  091%=      5-min Rain = 0
KRO1 090837Z 27005KT 06/04 A3027 RMK A01 T00560044  RH  092%=      5-min Rain = 0
KRO1 090838Z 27004KT 06/04 A3027 RMK A01 T00560044  RH  092%=      5-min Rain = 0
KRO1 090839Z 27004KT 06/04 A3027 RMK A01 T00560044  RH  092%=      5-min Rain = 0
KRO1 090840Z 26005KT 06/04 A3027 RMK A01 T00550044  RH  092%=      5-min Rain = 0
KRO1 090841Z 27005KT 06/04 A3027 RMK A01 T00550044  RH  093%=      5-min Rain = 0
KRO1 090842Z 27005KT 06/04 A3027 RMK A01 T00550044  RH  093%=      5-min Rain = 0
KRO1 090843Z 27005KT 06/04 A3027 RMK A01 T00550044  RH  093%=      5-min Rain = 0
KRO1 090844Z 27005KT 06/05 A3027 RMK A01 T00550045  RH  093%=      5-min Rain = 0
KRO1 090845Z 27005KT 06/05 A3027 RMK A01 T00560045  RH  093%=      5-min Rain = 0
KRO1 090846Z 27005KT 06/05 A3027 RMK A01 T00550045  RH  093%=      5-min Rain = 0
KRO1 090847Z 27005KT 06/04 A3027 RMK A01 T00550044  RH  093%=      5-min Rain = 0
KRO1 090848Z 27005KT 06/05 A3027 RMK A01 T00560045  RH  093%=      5-min Rain = 0
KRO1 090849Z 27005KT 06/05 A3027 RMK A01 T00560045  RH  093%=      5-min Rain = 0
KRO1 090850Z 25005KT 06/05 A3027 RMK A01 T00560045  RH  093%=      5-min Rain = 0
KRO1 090851Z 25005KT 06/05 A3027 RMK A01 T00560045  RH  093%=      5-min Rain = 0
KRO1 090852Z 27005KT 06/05 A3027 RMK A01 T00560045  RH  093%=      5-min Rain = 0
KRO1 090853Z 27005KT 06/05 A3027 RMK A01 T00560045  RH  093%=      5-min Rain = 0
KRO1 090854Z 26006KT 06/05 A3027 RMK A01 T00560045  RH  093%=      5-min Rain = 0
KRO1 090855Z 26006KT 06/05 A3027 RMK A01 T00560045  RH  093%=      5-min Rain = 0
KRO1 090856Z 26006KT 06/05 A3027 RMK A01 T00560045  RH  093%=      5-min Rain = 0
KRO1 090857Z 26006KT 06/05 A3027 RMK A01 T00560045  RH  093%=      5-min Rain = 0
KRO1 090858Z 26006KT 06/05 A3027 RMK A01 T00560045  RH  093%=      5-min Rain = 0
KRO1 090859Z 26006KT 06/04 A3027 RMK A01 T00550044  RH  093%=      5-min Rain = 0
KRO1 090900Z 26006KT 06/04 A3027 RMK A01 T00550044  RH  093%=      5-min Rain = 0
KRO1 090901Z 26006KT 06/04 A3027 RMK A01 T00550044  RH  093%=      5-min Rain = 0
KRO1 090902Z 26006KT 06/04 A3027 RMK A01 T00550044  RH  093%=      5-min Rain = 0
KRO1 090903Z 26006KT 05/04 A3027 RMK A01 T00540044  RH  093%=      5-min Rain = 0
KRO1 090904Z 26006KT 05/04 A3027 RMK A01 T00540044  RH  093%=      5-min Rain = 0
KRO1 090905Z 26006KT 05/04 A3027 RMK A01 T00540044  RH  093%=      5-min Rain = 0
KRO1 090906Z 26006KT 05/04 A3027 RMK A01 T00540044  RH  093%=      5-min Rain = 0
KRO1 090907Z 26006KT 05/04 A3027 RMK A01 T00540044  RH  093%=      5-min Rain = 0
KRO1 090908Z 26006KT 05/04 A3027 RMK A01 T00540044  RH  093%=      5-min Rain = 0
KRO1 090909Z 26006KT 05/04 A3027 RMK A01 T00540044  RH  093%=      5-min Rain = 0
KRO1 090910Z 26006KT 05/04 A3027 RMK A01 T00540044  RH  093%=      5-min Rain = 0
KRO1 090911Z 26005KT 05/04 A3027 RMK A01 T00540044  RH  094%=      5-min Rain = 0
KRO1 090912Z 26005KT 05/04 A3027 RMK A01 T00530043  RH  093%=      5-min Rain = 0
KRO1 090913Z 26005KT 05/04 A3027 RMK A01 T00530043  RH  094%=      5-min Rain = 0
KRO1 090914Z 26005KT 05/04 A3027 RMK A01 T00530044  RH  094%=      5-min Rain = 0
KRO1 090915Z 26005KT 05/04 A3027 RMK A01 T00530043  RH  094%=      5-min Rain = 0
KRO1 090916Z 26005KT 05/04 A3026 RMK A01 T00530044  RH  094%=      5-min Rain = 0
KRO1 090917Z 26004KT 05/04 A3026 RMK A01 T00530044  RH  094%=      5-min Rain = 0
KRO1 090918Z 26005KT 05/04 A3026 RMK A01 T00520043  RH  094%=      5-min Rain = 0
KRO1 090919Z 26005KT 05/04 A3026 RMK A01 T00520043  RH  094%=      5-min Rain = 0
KRO1 090920Z 26005KT 05/04 A3027 RMK A01 T00520043  RH  094%=      5-min Rain = 0
KRO1 090921Z 26005KT 05/04 A3027 RMK A01 T00520043  RH  094%=      5-min Rain = 0
KRO1 090922Z 26005KT 05/04 A3027 RMK A01 T00520043  RH  094%=      5-min Rain = 0
KRO1 090923Z 26005KT 05/04 A3026 RMK A01 T00510043  RH  094%=      5-min Rain = 0
KRO1 090924Z 26005KT 05/04 A3026 RMK A01 T00510043  RH  094%=      5-min Rain = 0
KRO1 090925Z 26005KT 05/04 A3026 RMK A01 T00510042  RH  094%=      5-min Rain = 0
KRO1 090926Z 25005KT 05/04 A3026 RMK A01 T00500042  RH  094%=      5-min Rain = 0
KRO1 090927Z 25005KT 05/04 A3026 RMK A01 T00500042  RH  094%=      5-min Rain = 0
KRO1 090928Z 25005KT 05/04 A3026 RMK A01 T00500042  RH  094%=      5-min Rain = 0
KRO1 090929Z 25005KT 05/04 A3026 RMK A01 T00500042  RH  095%=      5-min Rain = 0
KRO1 090930Z 25005KT 05/04 A3026 RMK A01 T00500042  RH  095%=      5-min Rain = 0
KRO1 090931Z 25005KT 05/04 A3026 RMK A01 T00500042  RH  095%=      5-min Rain = 0
KRO1 090932Z 24005KT 05/04 A3026 RMK A01 T00500042  RH  095%=      5-min Rain = 0
KRO1 090933Z 25005KT 05/04 A3026 RMK A01 T00500043  RH  095%=      5-min Rain = 0
KRO1 090934Z 25005KT 05/04 A3026 RMK A01 T00500043  RH  095%=      5-min Rain = 0
KRO1 090935Z 25005KT 05/04 A3026 RMK A01 T00500043  RH  095%=      5-min Rain = 0
KRO1 090936Z 25005KT 05/04 A3026 RMK A01 T00500043  RH  095%=      5-min Rain = 0
KRO1 090937Z 25005KT 05/04 A3026 RMK A01 T00500043  RH  095%=      5-min Rain = 0
KRO1 090938Z 25005KT 05/04 A3026 RMK A01 T00510044  RH  095%=      5-min Rain = 0
KRO1 090939Z 25005KT 05/04 A3026 RMK A01 T00510044  RH  095%=      5-min Rain = 0
KRO1 090940Z 25005KT 05/04 A3026 RMK A01 T00510044  RH  095%=      5-min Rain = 0
KRO1 090941Z 24005KT 05/04 A3026 RMK A01 T00510044  RH  095%=      5-min Rain = 0
KRO1 090942Z 24005KT 05/05 A3026 RMK A01 T00510045  RH  095%=      5-min Rain = 0
KRO1 090943Z 24006KT 05/05 A3026 RMK A01 T00520045  RH  096%=      5-min Rain = 0
KRO1 090944Z 24006KT 05/05 A3026 RMK A01 T00520046  RH  096%=      5-min Rain = 0
KRO1 090945Z 24006KT 05/05 A3026 RMK A01 T00520046  RH  096%=      5-min Rain = 0
KRO1 090946Z 24006KT 05/05 A3026 RMK A01 T00530046  RH  095%=      5-min Rain = 0
KRO1 090947Z 24006KT 05/05 A3026 RMK A01 T00530046  RH  096%=      5-min Rain = 0
KRO1 090948Z 24006KT 05/05 A3026 RMK A01 T00540047  RH  096%=      5-min Rain = 0
KRO1 090949Z 24006KT 05/05 A3026 RMK A01 T00540047  RH  095%=      5-min Rain = 0
KRO1 090950Z 24006KT 05/05 A3026 RMK A01 T00540047  RH  095%=      5-min Rain = 0
KRO1 090951Z 25006KT 05/05 A3026 RMK A01 T00540048  RH  096%=      5-min Rain = 0
KRO1 090952Z 25006KT 06/05 A3026 RMK A01 T00550048  RH  096%=      5-min Rain = 0
KRO1 090953Z 25006KT 06/05 A3026 RMK A01 T00550048  RH  096%=      5-min Rain = 0
KRO1 090954Z 25006KT 06/05 A3026 RMK A01 T00550048  RH  095%=      5-min Rain = 0
KRO1 090955Z 24006KT 06/05 A3026 RMK A01 T00550048  RH  095%=      5-min Rain = 0
KRO1 090956Z 25007KT 06/05 A3026 RMK A01 T00560049  RH  095%=      5-min Rain = 0
KRO1 090957Z 25006KT 06/05 A3026 RMK A01 T00560049  RH  095%=      5-min Rain = 0
KRO1 090958Z 25007KT 06/05 A3026 RMK A01 T00560050  RH  095%=      5-min Rain = 0
KRO1 090959Z 25007KT 06/05 A3026 RMK A01 T00560049  RH  095%=      5-min Rain = 0
KRO1 091000Z 24006KT 06/05 A3026 RMK A01 T00560049  RH  095%=      5-min Rain = 0
KRO1 091001Z 25007KT 06/05 A3026 RMK A01 T00560049  RH  095%=      5-min Rain = 0
KRO1 091002Z 24007KT 06/05 A3026 RMK A01 T00570049  RH  095%=      5-min Rain = 0
KRO1 091003Z 24007KT 06/05 A3026 RMK A01 T00560049  RH  095%=      5-min Rain = 0
KRO1 091004Z 24008KT 06/05 A3026 RMK A01 T00560049  RH  095%=      5-min Rain = 0
KRO1 091005Z 24008KT 06/05 A3026 RMK A01 T00570049  RH  095%=      5-min Rain = 0
KRO1 091006Z 25008KT 06/05 A3026 RMK A01 T00570050  RH  095%=      5-min Rain = 0
KRO1 091007Z 25008KT 06/05 A3026 RMK A01 T00580050  RH  095%=      5-min Rain = 0
KRO1 091008Z 25008KT 06/05 A3026 RMK A01 T00580050  RH  095%=      5-min Rain = 0
KRO1 091009Z 25008KT 06/05 A3026 RMK A01 T00580050  RH  095%=      5-min Rain = 0
KRO1 091010Z 25007KT 06/05 A3026 RMK A01 T00580050  RH  095%=      5-min Rain = 0
KRO1 091011Z 25007KT 06/05 A3026 RMK A01 T00580050  RH  095%=      5-min Rain = 0
KRO1 091012Z 25008KT 06/05 A3026 RMK A01 T00580050  RH  095%=      5-min Rain = 0
KRO1 091013Z 25008KT 06/05 A3026 RMK A01 T00580050  RH  095%=      5-min Rain = 0
KRO1 091014Z 24008KT 06/05 A3026 RMK A01 T00570049  RH  095%=      5-min Rain = 0
KRO1 091015Z 24007KT 06/05 A3026 RMK A01 T00570049  RH  095%=      5-min Rain = 0
KRO1 091016Z 24008KT 06/05 A3026 RMK A01 T00570049  RH  095%=      5-min Rain = 0
KRO1 091017Z 24008KT 06/05 A3026 RMK A01 T00570049  RH  095%=      5-min Rain = 0
KRO1 091018Z 24008KT 06/05 A3025 RMK A01 T00560049  RH  095%=      5-min Rain = 0
KRO1 091019Z 24007KT 06/05 A3025 RMK A01 T00560049  RH  095%=      5-min Rain = 0
KRO1 091020Z 24008KT 06/05 A3025 RMK A01 T00570049  RH  095%=      5-min Rain = 0
KRO1 091021Z 24008KT 06/05 A3025 RMK A01 T00560049  RH  095%=      5-min Rain = 0
KRO1 091022Z 24008KT 06/05 A3025 RMK A01 T00560048  RH  095%=      5-min Rain = 0
KRO1 091023Z 24008KT 06/05 A3025 RMK A01 T00560049  RH  095%=      5-min Rain = 0
KRO1 091024Z 24007KT 06/05 A3025 RMK A01 T00560049  RH  095%=      5-min Rain = 0
KRO1 091025Z 24008KT 06/05 A3025 RMK A01 T00560049  RH  095%=      5-min Rain = 0
KRO1 091026Z 24008KT 06/05 A3025 RMK A01 T00560049  RH  095%=      5-min Rain = 0
KRO1 091027Z 24008KT 06/05 A3025 RMK A01 T00560049  RH  095%=      5-min Rain = 0
KRO1 091028Z 24007KT 06/05 A3025 RMK A01 T00560049  RH  095%=      5-min Rain = 0
KRO1 091029Z 24008KT 06/05 A3025 RMK A01 T00560049  RH  095%=      5-min Rain = 0
KRO1 091030Z 24008KT 06/05 A3025 RMK A01 T00560049  RH  095%=      5-min Rain = 0
KRO1 091031Z 24008KT 06/05 A3025 RMK A01 T00560049  RH  095%=      5-min Rain = 0
KRO1 091032Z 23008KT 06/05 A3025 RMK A01 T00560049  RH  095%=      5-min Rain = 0
KRO1 091033Z 23009KT 06/05 A3025 RMK A01 T00560049  RH  095%=      5-min Rain = 0
KRO1 091034Z 23008KT 06/05 A3025 RMK A01 T00560050  RH  095%=      5-min Rain = 0
KRO1 091035Z 23009KT 06/05 A3025 RMK A01 T00570050  RH  095%=      5-min Rain = 0
KRO1 091036Z 24008KT 06/05 A3025 RMK A01 T00560049  RH  095%=      5-min Rain = 0
KRO1 091037Z 23007KT 06/05 A3025 RMK A01 T00570049  RH  095%=      5-min Rain = 0
KRO1 091038Z 24008KT 06/05 A3025 RMK A01 T00560049  RH  095%=      5-min Rain = 0
KRO1 091039Z 24007KT 06/05 A3025 RMK A01 T00560049  RH  095%=      5-min Rain = 0
KRO1 091040Z 24008KT 06/05 A3025 RMK A01 T00560049  RH  095%=      5-min Rain = 0
KRO1 091041Z 24008KT 06/05 A3025 RMK A01 T00570050  RH  095%=      5-min Rain = 0
KRO1 091042Z 24007KT 06/05 A3025 RMK A01 T00570050  RH  095%=      5-min Rain = 0
KRO1 091043Z 24007KT 06/05 A3024 RMK A01 T00570049  RH  095%=      5-min Rain = 0
KRO1 091044Z 24008KT 06/05 A3024 RMK A01 T00560049  RH  095%=      5-min Rain = 0
KRO1 091045Z 24008KT 06/05 A3024 RMK A01 T00560049  RH  095%=      5-min Rain = 0
KRO1 091046Z 23008KT 06/05 A3024 RMK A01 T00560050  RH  095%=      5-min Rain = 0
KRO1 091047Z 24008KT 06/05 A3024 RMK A01 T00570050  RH  095%=      5-min Rain = 0
KRO1 091048Z 24008KT 06/05 A3024 RMK A01 T00560050  RH  095%=      5-min Rain = 0
KRO1 091049Z 24007KT 06/05 A3024 RMK A01 T00570050  RH  095%=      5-min Rain = 0
KRO1 091050Z 24007KT 06/05 A3024 RMK A01 T00560049  RH  095%=      5-min Rain = 0
KRO1 091051Z 24007KT 06/05 A3024 RMK A01 T00560049  RH  095%=      5-min Rain = 0
KRO1 091052Z 24007KT 06/05 A3025 RMK A01 T00560050  RH  095%=      5-min Rain = 0
KRO1 091053Z 24007KT 06/05 A3025 RMK A01 T00560049  RH  095%=      5-min Rain = 0
KRO1 091054Z 24007KT 06/05 A3025 RMK A01 T00560050  RH  095%=      5-min Rain = 0
KRO1 091055Z 24007KT 06/05 A3025 RMK A01 T00560050  RH  095%=      5-min Rain = 0
KRO1 091056Z 24007KT 06/05 A3025 RMK A01 T00560049  RH  095%=      5-min Rain = 0
KRO1 091057Z 24007KT 06/05 A3025 RMK A01 T00570050  RH  095%=      5-min Rain = 0
KRO1 091058Z 24007KT 06/05 A3025 RMK A01 T00560049  RH  095%=      5-min Rain = 0
KRO1 091059Z 24007KT 06/05 A3025 RMK A01 T00560049  RH  095%=      5-min Rain = 0
KRO1 091100Z 24007KT 06/05 A3025 RMK A01 T00560049  RH  095%=      5-min Rain = 0
KRO1 091101Z 24007KT 06/05 A3025 RMK A01 T00560049  RH  095%=      5-min Rain = 0
KRO1 091102Z 24007KT 06/05 A3025 RMK A01 T00560049  RH  095%=      5-min Rain = 0
KRO1 091103Z 25007KT 06/05 A3025 RMK A01 T00560049  RH  095%=      5-min Rain = 0
KRO1 091104Z 24007KT 06/05 A3025 RMK A01 T00560049  RH  095%=      5-min Rain = 0
KRO1 091105Z 25007KT 06/05 A3025 RMK A01 T00560049  RH  095%=      5-min Rain = 0
KRO1 091106Z 24008KT 06/05 A3025 RMK A01 T00560049  RH  095%=      5-min Rain = 0
KRO1 091107Z 24007KT 06/05 A3025 RMK A01 T00560049  RH  095%=      5-min Rain = 0
KRO1 091108Z 24008KT 06/05 A3025 RMK A01 T00570050  RH  095%=      5-min Rain = 0
KRO1 091109Z 24008KT 06/05 A3025 RMK A01 T00560050  RH  095%=      5-min Rain = 0
KRO1 091110Z 24008KT 06/05 A3024 RMK A01 T00560050  RH  095%=      5-min Rain = 0
KRO1 091111Z 24008KT 06/05 A3024 RMK A01 T00570050  RH  095%=      5-min Rain = 0
KRO1 091112Z 24008KT 06/05 A3024 RMK A01 T00570050  RH  095%=      5-min Rain = 0
KRO1 091113Z 24008KT 06/05 A3024 RMK A01 T00560050  RH  095%=      5-min Rain = 0
KRO1 091114Z 24008KT 06/05 A3024 RMK A01 T00560050  RH  095%=      5-min Rain = 0
KRO1 091115Z 24008KT 06/05 A3024 RMK A01 T00560049  RH  095%=      5-min Rain = 0
KRO1 091116Z 24008KT 06/05 A3024 RMK A01 T00570050  RH  095%=      5-min Rain = 0
KRO1 091117Z 24007KT 06/05 A3024 RMK A01 T00570050  RH  095%=      5-min Rain = 0
KRO1 091118Z 24008KT 06/05 A3024 RMK A01 T00570050  RH  095%=      5-min Rain = 0
KRO1 091119Z 24008KT 06/05 A3024 RMK A01 T00570050  RH  095%=      5-min Rain = 0
KRO1 091120Z 24008KT 06/05 A3024 RMK A01 T00570050  RH  095%=      5-min Rain = 0
KRO1 091121Z 25008KT 06/05 A3024 RMK A01 T00570050  RH  095%=      5-min Rain = 0
KRO1 091122Z 25008KT 06/05 A3024 RMK A01 T00570049  RH  095%=      5-min Rain = 0
KRO1 091123Z 25008KT 06/05 A3024 RMK A01 T00560049  RH  095%=      5-min Rain = 0
KRO1 091124Z 25008KT 06/05 A3024 RMK A01 T00560049  RH  095%=      5-min Rain = 0
KRO1 091125Z 25008KT 06/05 A3024 RMK A01 T00560049  RH  095%=      5-min Rain = 0
KRO1 091126Z 25008KT 06/05 A3024 RMK A01 T00560049  RH  095%=      5-min Rain = 0
KRO1 091127Z 25008KT 06/05 A3025 RMK A01 T00550048  RH  095%=      5-min Rain = 0
KRO1 091128Z 24008KT 06/05 A3025 RMK A01 T00550049  RH  095%=      5-min Rain = 0
KRO1 091129Z 24008KT 06/05 A3025 RMK A01 T00560049  RH  095%=      5-min Rain = 0
KRO1 091130Z 24008KT 06/05 A3025 RMK A01 T00550049  RH  095%=      5-min Rain = 0
KRO1 091131Z 24009KT 06/05 A3025 RMK A01 T00560049  RH  095%=      5-min Rain = 0
KRO1 091132Z 24009KT 06/05 A3025 RMK A01 T00560049  RH  095%=      5-min Rain = 0
KRO1 091133Z 24008KT 06/05 A3025 RMK A01 T00560049  RH  096%=      5-min Rain = 0
KRO1 091134Z 24009KT 06/05 A3025 RMK A01 T00560050  RH  096%=      5-min Rain = 0
KRO1 091135Z 24009KT 06/05 A3025 RMK A01 T00560049  RH  095%=      5-min Rain = 0
KRO1 091136Z 24009KT 06/05 A3025 RMK A01 T00570050  RH  095%=      5-min Rain = 0
KRO1 091137Z 24009KT 06/05 A3025 RMK A01 T00570050  RH  095%=      5-min Rain = 0
KRO1 091138Z 24009KT 06/05 A3025 RMK A01 T00570050  RH  095%=      5-min Rain = 0
KRO1 091139Z 24009KT 06/05 A3025 RMK A01 T00570050  RH  095%=      5-min Rain = 0
KRO1 091140Z 24010KT 06/05 A3025 RMK A01 T00580050  RH  095%=      5-min Rain = 0
KRO1 091141Z 24009KT 06/05 A3025 RMK A01 T00580051  RH  095%=      5-min Rain = 0
KRO1 091142Z 24009KT 06/05 A3025 RMK A01 T00580051  RH  095%=      5-min Rain = 0
KRO1 091143Z 24009KT 06/05 A3025 RMK A01 T00580051  RH  095%=      5-min Rain = 0
KRO1 091144Z 24009KT 06/05 A3025 RMK A01 T00580051  RH  095%=      5-min Rain = 0
KRO1 091145Z 24009KT 06/05 A3025 RMK A01 T00580050  RH  095%=      5-min Rain = 0
KRO1 091146Z 24009KT 06/05 A3025 RMK A01 T00580050  RH  095%=      5-min Rain = 0
KRO1 091147Z 24009KT 06/05 A3025 RMK A01 T00580050  RH  094%=      5-min Rain = 0
KRO1 091148Z 24009KT 06/05 A3025 RMK A01 T00580050  RH  095%=      5-min Rain = 0
KRO1 091149Z 24009KT 06/05 A3025 RMK A01 T00580050  RH  095%=      5-min Rain = 0
KRO1 091150Z 24009KT 06/05 A3025 RMK A01 T00580050  RH  095%=      5-min Rain = 0
KRO1 091151Z 24009KT 06/05 A3025 RMK A01 T00580050  RH  095%=      5-min Rain = 0
KRO1 091152Z 24009KT 06/05 A3025 RMK A01 T00580050  RH  095%=      5-min Rain = 0
KRO1 091153Z 24009KT 06/05 A3025 RMK A01 T00580050  RH  095%=      5-min Rain = 0
KRO1 091154Z 24009KT 06/05 A3025 RMK A01 T00570049  RH  095%=      5-min Rain = 0
KRO1 091155Z 24009KT 06/05 A3025 RMK A01 T00570050  RH  095%=      5-min Rain = 0
KRO1 091156Z 24009KT 06/05 A3025 RMK A01 T00570050  RH  095%=      5-min Rain = 0
KRO1 091157Z 24009KT 06/05 A3025 RMK A01 T00570050  RH  095%=      5-min Rain = 0
KRO1 091158Z 24009KT 06/05 A3025 RMK A01 T00580050  RH  095%=      5-min Rain = 0
KRO1 091159Z 24009KT 06/05 A3025 RMK A01 T00580050  RH  095%=      5-min Rain = 0
KRO1 091200Z 24009KT 06/05 A3025 RMK A01 T00580050  RH  095%=      5-min Rain = 0
KRO1 091201Z 24009KT 06/05 A3025 RMK A01 T00580050  RH  095%=      5-min Rain = 0
KRO1 091202Z 24009KT 06/05 A3025 RMK A01 T00580050  RH  095%=      5-min Rain = 0
KRO1 091203Z 24009KT 06/05 A3025 RMK A01 T00580050  RH  095%=      5-min Rain = 0
KRO1 091204Z 24008KT 06/05 A3025 RMK A01 T00580050  RH  095%=      5-min Rain = 0
KRO1 091205Z 24008KT 06/05 A3025 RMK A01 T00580050  RH  095%=      5-min Rain = 0
KRO1 091206Z 24008KT 06/05 A3025 RMK A01 T00580050  RH  095%=      5-min Rain = 0
KRO1 091207Z 24007KT 06/05 A3025 RMK A01 T00570049  RH  095%=      5-min Rain = 0
KRO1 091208Z 24008KT 06/05 A3025 RMK A01 T00570049  RH  095%=      5-min Rain = 0
KRO1 091209Z 24008KT 06/05 A3025 RMK A01 T00570049  RH  095%=      5-min Rain = 0
KRO1 091210Z 24008KT 06/05 A3025 RMK A01 T00570049  RH  095%=      5-min Rain = 0
KRO1 091211Z 24008KT 06/05 A3025 RMK A01 T00560049  RH  095%=      5-min Rain = 0
KRO1 091212Z 24008KT 06/05 A3025 RMK A01 T00560049  RH  095%=      5-min Rain = 0
KRO1 091213Z 24008KT 06/05 A3025 RMK A01 T00560049  RH  095%=      5-min Rain = 0
KRO1 091214Z 24007KT 06/05 A3025 RMK A01 T00570049  RH  095%=      5-min Rain = 0
KRO1 091215Z 24008KT 06/05 A3025 RMK A01 T00560049  RH  095%=      5-min Rain = 0
KRO1 091216Z 24008KT 06/05 A3025 RMK A01 T00560049  RH  095%=      5-min Rain = 0
KRO1 091217Z 23007KT 06/05 A3025 RMK A01 T00560049  RH  095%=      5-min Rain = 0
KRO1 091218Z 23008KT 06/05 A3025 RMK A01 T00560048  RH  095%=      5-min Rain = 0
KRO1 091219Z 23008KT 06/05 A3025 RMK A01 T00560049  RH  095%=      5-min Rain = 0
KRO1 091220Z 23008KT 06/05 A3025 RMK A01 T00560049  RH  095%=      5-min Rain = 0
KRO1 091221Z 23008KT 06/05 A3025 RMK A01 T00560049  RH  095%=      5-min Rain = 0
KRO1 091222Z 24008KT 06/05 A3025 RMK A01 T00560048  RH  095%=      5-min Rain = 0
KRO1 091223Z 24008KT 06/05 A3025 RMK A01 T00560048  RH  095%=      5-min Rain = 0
KRO1 091224Z 24008KT 06/05 A3025 RMK A01 T00560049  RH  095%=      5-min Rain = 0
KRO1 091225Z 24008KT 06/05 A3025 RMK A01 T00560049  RH  095%=      5-min Rain = 0
KRO1 091226Z 24008KT 06/05 A3025 RMK A01 T00560049  RH  095%=      5-min Rain = 0
KRO1 091227Z 24008KT 06/05 A3025 RMK A01 T00570049  RH  095%=      5-min Rain = 0
KRO1 091228Z 24008KT 06/05 A3025 RMK A01 T00570049  RH  095%=      5-min Rain = 0
KRO1 091229Z 24008KT 06/05 A3025 RMK A01 T00570049  RH  095%=      5-min Rain = 0
KRO1 091230Z 24008KT 06/05 A3025 RMK A01 T00570049  RH  095%=      5-min Rain = 0
KRO1 091231Z 23008KT 06/05 A3025 RMK A01 T00570049  RH  095%=      5-min Rain = 0
KRO1 091232Z 24009KT 06/05 A3025 RMK A01 T00570049  RH  095%=      5-min Rain = 0
KRO1 091233Z 23009KT 06/05 A3025 RMK A01 T00570049  RH  095%=      5-min Rain = 0
KRO1 091234Z 23010KT 06/05 A3025 RMK A01 T00580049  RH  094%=      5-min Rain = 0
KRO1 091235Z 23010KT 06/05 A3025 RMK A01 T00580050  RH  094%=      5-min Rain = 0
KRO1 091236Z 23010KT 06/05 A3025 RMK A01 T00590050  RH  094%=      5-min Rain = 0
KRO1 091237Z 23010KT 06/05 A3025 RMK A01 T00590050  RH  094%=      5-min Rain = 0
KRO1 091238Z 24010KT 06/05 A3025 RMK A01 T00590051  RH  094%=      5-min Rain = 0
KRO1 091239Z 23010KT 06/05 A3025 RMK A01 T00600051  RH  094%=      5-min Rain = 0
KRO1 091240Z 23009KT 06/05 A3025 RMK A01 T00600051  RH  094%=      5-min Rain = 0
KRO1 091241Z 23009KT 06/05 A3025 RMK A01 T00600051  RH  094%=      5-min Rain = 0
KRO1 091242Z 23009KT 06/05 A3025 RMK A01 T00610051  RH  094%=      5-min Rain = 0
KRO1 091243Z 24009KT 06/05 A3025 RMK A01 T00610051  RH  094%=      5-min Rain = 0
KRO1 091244Z 23008KT 06/05 A3025 RMK A01 T00610051  RH  094%=      5-min Rain = 0
KRO1 091245Z 24009KT 06/05 A3025 RMK A01 T00610051  RH  093%=      5-min Rain = 0
KRO1 091246Z 24009KT 06/05 A3025 RMK A01 T00610051  RH  093%=      5-min Rain = 0
KRO1 091247Z 24009KT 06/05 A3025 RMK A01 T00610051  RH  093%=      5-min Rain = 0
KRO1 091248Z 24009KT 06/05 A3025 RMK A01 T00610051  RH  093%=      5-min Rain = 0
KRO1 091249Z 24009KT 06/05 A3025 RMK A01 T00610051  RH  093%=      5-min Rain = 0
KRO1 091250Z 24009KT 06/05 A3025 RMK A01 T00620052  RH  093%=      5-min Rain = 0
KRO1 091251Z 23008KT 06/05 A3025 RMK A01 T00620051  RH  093%=      5-min Rain = 0
KRO1 091252Z 23009KT 06/05 A3025 RMK A01 T00620051  RH  093%=      5-min Rain = 0
KRO1 091253Z 23010KT 06/05 A3025 RMK A01 T00620051  RH  093%=      5-min Rain = 0
KRO1 091254Z 23009KT 06/05 A3025 RMK A01 T00620051  RH  093%=      5-min Rain = 0
KRO1 091255Z 23009KT 06/05 A3025 RMK A01 T00620051  RH  093%=      5-min Rain = 0
KRO1 091256Z 23009KT 06/05 A3025 RMK A01 T00610051  RH  093%=      5-min Rain = 0
KRO1 091257Z 23009KT 06/05 A3025 RMK A01 T00620051  RH  093%=      5-min Rain = 0
KRO1 091258Z 23009KT 06/05 A3025 RMK A01 T00610051  RH  093%=      5-min Rain = 0
KRO1 091259Z 23008KT 06/05 A3025 RMK A01 T00620051  RH  093%=      5-min Rain = 0
KRO1 091300Z 23009KT 06/05 A3025 RMK A01 T00610050  RH  093%=      5-min Rain = 0
KRO1 091301Z 23009KT 06/05 A3025 RMK A01 T00610050  RH  093%=      5-min Rain = 0
KRO1 091302Z 23008KT 06/05 A3025 RMK A01 T00610050  RH  093%=      5-min Rain = 0
KRO1 091303Z 23009KT 06/05 A3025 RMK A01 T00600050  RH  093%=      5-min Rain = 0
KRO1 091304Z 23009KT 06/05 A3025 RMK A01 T00600050  RH  093%=      5-min Rain = 0
KRO1 091305Z 23009KT 06/05 A3025 RMK A01 T00600050  RH  093%=      5-min Rain = 0
KRO1 091306Z 23009KT 06/05 A3025 RMK A01 T00610050  RH  093%=      5-min Rain = 0
KRO1 091307Z 23009KT 06/05 A3025 RMK A01 T00610050  RH  093%=      5-min Rain = 0
KRO1 091308Z 22009KT 06/05 A3025 RMK A01 T00610051  RH  093%=      5-min Rain = 0
KRO1 091309Z 22010KT 06/05 A3025 RMK A01 T00610050  RH  093%=      5-min Rain = 0
KRO1 091310Z 22009KT 06/05 A3025 RMK A01 T00600050  RH  093%=      5-min Rain = 0
KRO1 091311Z 22009KT 06/05 A3025 RMK A01 T00610050  RH  093%=      5-min Rain = 0
KRO1 091312Z 22009KT 06/05 A3025 RMK A01 T00610050  RH  093%=      5-min Rain = 0
KRO1 091313Z 22010KT 06/05 A3025 RMK A01 T00610051  RH  093%=      5-min Rain = 0
KRO1 091314Z 23010KT 06/05 A3025 RMK A01 T00610051  RH  093%=      5-min Rain = 0
KRO1 091315Z 23010KT 06/05 A3025 RMK A01 T00610050  RH  093%=      5-min Rain = 0
KRO1 091316Z 23010KT 06/05 A3025 RMK A01 T00610050  RH  093%=      5-min Rain = 0
KRO1 091317Z 22010KT 06/05 A3025 RMK A01 T00610050  RH  093%=      5-min Rain = 0
KRO1 091318Z 22009KT 06/05 A3025 RMK A01 T00620051  RH  093%=      5-min Rain = 0
KRO1 091319Z 22010KT 06/05 A3025 RMK A01 T00610050  RH  093%=      5-min Rain = 0
KRO1 091320Z 22010KT 06/05 A3025 RMK A01 T00610051  RH  093%=      5-min Rain = 0
KRO1 091321Z 23010KT 06/05 A3025 RMK A01 T00620051  RH  093%=      5-min Rain = 0
KRO1 091322Z 23010KT 06/05 A3025 RMK A01 T00610050  RH  093%=      5-min Rain = 0
KRO1 091323Z 23010KT 06/05 A3025 RMK A01 T00610050  RH  093%=      5-min Rain = 0
KRO1 091324Z 22009KT 06/05 A3025 RMK A01 T00610050  RH  093%=      5-min Rain = 0
KRO1 091325Z 22009KT 06/05 A3025 RMK A01 T00610050  RH  093%=      5-min Rain = 0
KRO1 091326Z 22009KT 06/05 A3025 RMK A01 T00620051  RH  093%=      5-min Rain = 0
KRO1 091327Z 22009KT 06/05 A3025 RMK A01 T00610050  RH  092%=      5-min Rain = 0
KRO1 091328Z 22009KT 06/05 A3025 RMK A01 T00610050  RH  092%=      5-min Rain = 0
KRO1 091329Z 23008KT 06/05 A3025 RMK A01 T00620051  RH  092%=      5-min Rain = 0
KRO1 091330Z 22008KT 06/05 A3025 RMK A01 T00620050  RH  092%=      5-min Rain = 0
KRO1 091331Z 23008KT 06/05 A3025 RMK A01 T00620050  RH  092%=      5-min Rain = 0
KRO1 091332Z 22009KT 06/05 A3025 RMK A01 T00620051  RH  092%=      5-min Rain = 0
KRO1 091333Z 23009KT 06/05 A3025 RMK A01 T00630051  RH  092%=      5-min Rain = 0
KRO1 091334Z 23008KT 06/05 A3025 RMK A01 T00630051  RH  092%=      5-min Rain = 0
KRO1 091335Z 22008KT 06/05 A3025 RMK A01 T00630051  RH  092%=      5-min Rain = 0
KRO1 091336Z 23008KT 06/05 A3025 RMK A01 T00630051  RH  092%=      5-min Rain = 0
KRO1 091337Z 22008KT 06/05 A3025 RMK A01 T00630052  RH  092%=      5-min Rain = 0
KRO1 091338Z 23007KT 06/05 A3025 RMK A01 T00640052  RH  092%=      5-min Rain = 0
KRO1 091339Z 23008KT 06/05 A3026 RMK A01 T00640052  RH  092%=      5-min Rain = 0
KRO1 091340Z 23007KT 06/05 A3026 RMK A01 T00640052  RH  092%=      5-min Rain = 0
KRO1 091341Z 22008KT 06/05 A3026 RMK A01 T00640052  RH  092%=      5-min Rain = 0
KRO1 091342Z 23008KT 07/05 A3026 RMK A01 T00650052  RH  092%=      5-min Rain = 0
KRO1 091343Z 23008KT 07/05 A3026 RMK A01 T00650052  RH  092%=      5-min Rain = 0
KRO1 091344Z 23008KT 07/05 A3026 RMK A01 T00650052  RH  092%=      5-min Rain = 0
KRO1 091345Z 23009KT 07/05 A3026 RMK A01 T00650053  RH  092%=      5-min Rain = 0
KRO1 091346Z 23008KT 07/05 A3026 RMK A01 T00650053  RH  092%=      5-min Rain = 0
KRO1 091347Z 23009KT 07/05 A3026 RMK A01 T00660053  RH  091%=      5-min Rain = 0
KRO1 091348Z 23007KT 07/05 A3026 RMK A01 T00660053  RH  091%=      5-min Rain = 0
KRO1 091349Z 23008KT 07/05 A3026 RMK A01 T00660053  RH  091%=      5-min Rain = 0
KRO1 091350Z 23008KT 07/05 A3026 RMK A01 T00660053  RH  091%=      5-min Rain = 0
KRO1 091351Z 22009KT 07/05 A3026 RMK A01 T00670053  RH  091%=      5-min Rain = 0
KRO1 091352Z 22008KT 07/05 A3026 RMK A01 T00670054  RH  091%=      5-min Rain = 0
KRO1 091353Z 22009KT 07/05 A3026 RMK A01 T00670054  RH  091%=      5-min Rain = 0
KRO1 091354Z 22009KT 07/05 A3026 RMK A01 T00680054  RH  091%=      5-min Rain = 0
KRO1 091355Z 22010KT 07/05 A3026 RMK A01 T00680054  RH  091%=      5-min Rain = 0
KRO1 091356Z 22008KT 07/05 A3026 RMK A01 T00680054  RH  091%=      5-min Rain = 0
KRO1 091357Z 23009KT 07/05 A3026 RMK A01 T00680054  RH  091%=      5-min Rain = 0
KRO1 091358Z 23008KT 07/05 A3026 RMK A01 T00690054  RH  091%=      5-min Rain = 0
KRO1 091359Z 23008KT 07/06 A3026 RMK A01 T00690055  RH  091%=      5-min Rain = 0
KRO1 091400Z 23009KT 07/06 A3026 RMK A01 T00690055  RH  090%=      5-min Rain = 0
KRO1 091401Z 23009KT 07/06 A3026 RMK A01 T00700055  RH  090%=      5-min Rain = 0
KRO1 091402Z 22008KT 07/05 A3026 RMK A01 T00700054  RH  090%=      5-min Rain = 0
KRO1 091403Z 23008KT 07/06 A3026 RMK A01 T00710056  RH  090%=      5-min Rain = 0
KRO1 091404Z 23009KT 07/06 A3026 RMK A01 T00710056  RH  090%=      5-min Rain = 0
KRO1 091405Z 23009KT 07/06 A3026 RMK A01 T00710056  RH  090%=      5-min Rain = 0
KRO1 091406Z 23009KT 07/06 A3026 RMK A01 T00720056  RH  090%=      5-min Rain = 0
KRO1 091407Z 23010KT 07/06 A3026 RMK A01 T00730057  RH  090%=      5-min Rain = 0
KRO1 091408Z 23009KT 07/06 A3026 RMK A01 T00730057  RH  089%=      5-min Rain = 0
KRO1 091409Z 23008KT 07/06 A3026 RMK A01 T00740057  RH  089%=      5-min Rain = 0
KRO1 091410Z 23009KT 08/06 A3026 RMK A01 T00750058  RH  089%=      5-min Rain = 0
KRO1 091411Z 23009KT 08/06 A3026 RMK A01 T00750058  RH  089%=      5-min Rain = 0
KRO1 091412Z 23009KT 08/06 A3026 RMK A01 T00760058  RH  089%=      5-min Rain = 0
KRO1 091413Z 23009KT 08/06 A3026 RMK A01 T00770059  RH  089%=      5-min Rain = 0
KRO1 091414Z 23009KT 08/06 A3026 RMK A01 T00770059  RH  088%=      5-min Rain = 0
KRO1 091415Z 23009KT 08/06 A3026 RMK A01 T00780060  RH  088%=      5-min Rain = 0
KRO1 091416Z 24009KT 08/06 A3026 RMK A01 T00790060  RH  088%=      5-min Rain = 0
KRO1 091417Z 23008KT 08/06 A3026 RMK A01 T00790060  RH  088%=      5-min Rain = 0
KRO1 091418Z 23008KT 08/06 A3026 RMK A01 T00800061  RH  088%=      5-min Rain = 0
KRO1 091419Z 24007KT 08/06 A3026 RMK A01 T00800061  RH  088%=      5-min Rain = 0
KRO1 091420Z 24008KT 08/06 A3026 RMK A01 T00810062  RH  088%=      5-min Rain = 0
KRO1 091421Z 24007KT 08/06 A3026 RMK A01 T00820063  RH  088%=      5-min Rain = 0
KRO1 091422Z 24006KT 08/06 A3026 RMK A01 T00830063  RH  088%=      5-min Rain = 0
KRO1 091423Z 24007KT 08/06 A3026 RMK A01 T00840064  RH  088%=      5-min Rain = 0
KRO1 091424Z 24008KT 08/06 A3026 RMK A01 T00840063  RH  087%=      5-min Rain = 0
KRO1 091425Z 24007KT 08/06 A3026 RMK A01 T00840062  RH  086%=      5-min Rain = 0
KRO1 091426Z 25006KT 09/06 A3027 RMK A01 T00850063  RH  086%=      5-min Rain = 0
KRO1 091427Z 25007KT 09/07 A3027 RMK A01 T00860065  RH  087%=      5-min Rain = 0
KRO1 091428Z 25006KT 09/06 A3027 RMK A01 T00870064  RH  086%=      5-min Rain = 0
KRO1 091429Z 25007KT 09/07 A3027 RMK A01 T00870065  RH  086%=      5-min Rain = 0
KRO1 091430Z 25007KT 09/07 A3027 RMK A01 T00880066  RH  086%=      5-min Rain = 0
KRO1 091431Z 24008KT 09/07 A3027 RMK A01 T00890066  RH  086%=      5-min Rain = 0
KRO1 091432Z 24007KT 09/07 A3027 RMK A01 T00890066  RH  085%=      5-min Rain = 0
KRO1 091433Z 24007KT 09/07 A3027 RMK A01 T00900066  RH  085%=      5-min Rain = 0
KRO1 091434Z 24007KT 09/07 A3027 RMK A01 T00900067  RH  086%=      5-min Rain = 0
KRO1 091435Z 24008KT 09/07 A3027 RMK A01 T00910067  RH  085%=      5-min Rain = 0
KRO1 091436Z 24009KT 09/07 A3027 RMK A01 T00910065  RH  084%=      5-min Rain = 0
KRO1 091437Z 24008KT 09/07 A3027 RMK A01 T00920066  RH  084%=      5-min Rain = 0
KRO1 091438Z 24007KT 09/07 A3027 RMK A01 T00930068  RH  084%=      5-min Rain = 0
KRO1 091439Z 24008KT 09/07 A3027 RMK A01 T00930067  RH  084%=      5-min Rain = 0
KRO1 091440Z 24009KT 09/07 A3027 RMK A01 T00940067  RH  083%=      5-min Rain = 0
KRO1 091441Z 24007KT 10/07 A3027 RMK A01 T00950067  RH  083%=      5-min Rain = 0
KRO1 091442Z 24009KT 10/07 A3027 RMK A01 T00950068  RH  083%=      5-min Rain = 0
KRO1 091443Z 24009KT 10/07 A3027 RMK A01 T00960067  RH  082%=      5-min Rain = 0
KRO1 091444Z 24008KT 10/07 A3027 RMK A01 T00970068  RH  082%=      5-min Rain = 0
KRO1 091445Z 24008KT 10/07 A3027 RMK A01 T00970069  RH  083%=      5-min Rain = 0
KRO1 091446Z 24009KT 10/07 A3027 RMK A01 T00980069  RH  082%=      5-min Rain = 0
KRO1 091447Z 24008KT 10/07 A3027 RMK A01 T00990069  RH  082%=      5-min Rain = 0
KRO1 091448Z 24009KT 10/07 A3027 RMK A01 T00990069  RH  082%=      5-min Rain = 0
KRO1 091449Z 24009KT 10/07 A3027 RMK A01 T00990069  RH  082%=      5-min Rain = 0
KRO1 091450Z 24008KT 10/07 A3027 RMK A01 T01000070  RH  082%=      5-min Rain = 0
KRO1 091451Z 24008KT 10/07 A3027 RMK A01 T01010071  RH  082%=      5-min Rain = 0
KRO1 091452Z 25009KT 10/07 A3027 RMK A01 T01020072  RH  082%=      5-min Rain = 0
KRO1 091453Z 24009KT 10/07 A3027 RMK A01 T01020071  RH  081%=      5-min Rain = 0
KRO1 091454Z 25007KT 10/07 A3027 RMK A01 T01030071  RH  081%=      5-min Rain = 0
KRO1 091455Z 24006KT 10/07 A3027 RMK A01 T01040073  RH  081%=      5-min Rain = 0
KRO1 091456Z 25008KT 11/07 A3027 RMK A01 T01050073  RH  081%=      5-min Rain = 0
KRO1 091457Z 25009KT 11/07 A3027 RMK A01 T01060073  RH  081%=      5-min Rain = 0
KRO1 091458Z 25008KT 11/07 A3027 RMK A01 T01060073  RH  080%=      5-min Rain = 0
KRO1 091459Z 25006KT 11/08 A3027 RMK A01 T01070075  RH  080%=      5-min Rain = 0
KRO1 091500Z 25007KT 11/08 A3027 RMK A01 T01080075  RH  080%=      5-min Rain = 0
KRO1 091501Z 24008KT 11/08 A3027 RMK A01 T01090076  RH  080%=      5-min Rain = 0
KRO1 091502Z 24007KT 11/08 A3027 RMK A01 T01100077  RH  080%=      5-min Rain = 0
KRO1 091503Z 24006KT 11/08 A3027 RMK A01 T01110078  RH  080%=      5-min Rain = 0
KRO1 091504Z 25007KT 11/08 A3028 RMK A01 T01130079  RH  080%=      5-min Rain = 0
KRO1 091505Z 25010KT 11/08 A3028 RMK A01 T01140078  RH  079%=      5-min Rain = 0
KRO1 091506Z 25011KT 11/08 A3028 RMK A01 T01140076  RH  077%=      5-min Rain = 0
KRO1 091507Z 25010KT 11/07 A3027 RMK A01 T01140074  RH  076%=      5-min Rain = 0
KRO1 091508Z 25011KT 11/07 A3027 RMK A01 T01130074  RH  077%=      5-min Rain = 0
KRO1 091509Z 25011KT 11/07 A3027 RMK A01 T01130074  RH  077%=      5-min Rain = 0
KRO1 091510Z 25010KT 11/08 A3027 RMK A01 T01130075  RH  078%=      5-min Rain = 0
KRO1 091511Z 25010KT 11/08 A3027 RMK A01 T01140075  RH  077%=      5-min Rain = 0
KRO1 091512Z 25009KT 12/08 A3027 RMK A01 T01150076  RH  077%=      5-min Rain = 0
KRO1 091513Z 25012KT 12/08 A3027 RMK A01 T01160077  RH  077%=      5-min Rain = 0
KRO1 091514Z 25013KT 12/08 A3027 RMK A01 T01160075  RH  076%=      5-min Rain = 0
KRO1 091515Z 25011KT 12/07 A3027 RMK A01 T01160074  RH  076%=      5-min Rain = 0
KRO1 091516Z 25012KT 12/08 A3027 RMK A01 T01160075  RH  076%=      5-min Rain = 0
KRO1 091517Z 25009KT 12/08 A3027 RMK A01 T01160076  RH  076%=      5-min Rain = 0
KRO1 091518Z 25012KT 12/08 A3027 RMK A01 T01170076  RH  076%=      5-min Rain = 0
KRO1 091519Z 24011KT 12/08 A3027 RMK A01 T01170075  RH  076%=      5-min Rain = 0
KRO1 091520Z 24012KT 12/08 A3027 RMK A01 T01170076  RH  075%=      5-min Rain = 0
KRO1 091521Z 24012KT 12/08 A3027 RMK A01 T01180075  RH  075%=      5-min Rain = 0
KRO1 091522Z 24012KT 12/08 A3027 RMK A01 T01180076  RH  076%=      5-min Rain = 0
KRO1 091523Z 24010G15KT 12/08 A3027 RMK A01 T01190078  RH  076%=      5-min Rain = 0
KRO1 091524Z 24013KT 12/08 A3027 RMK A01 T01200076  RH  074%=      5-min Rain = 0
KRO1 091525Z 24011KT 12/08 A3027 RMK A01 T01200075  RH  074%=      5-min Rain = 0
KRO1 091526Z 24012KT 12/08 A3027 RMK A01 T01200077  RH  075%=      5-min Rain = 0
KRO1 091527Z 24012KT 12/08 A3027 RMK A01 T01200077  RH  075%=      5-min Rain = 0
KRO1 091528Z 24011KT 12/08 A3027 RMK A01 T01210078  RH  075%=      5-min Rain = 0
KRO1 091529Z 25011KT 12/08 A3027 RMK A01 T01220079  RH  075%=      5-min Rain = 0
KRO1 091530Z 24012KT 12/08 A3027 RMK A01 T01230079  RH  074%=      5-min Rain = 0
KRO1 091531Z 24011KT 12/08 A3027 RMK A01 T01230078  RH  074%=      5-min Rain = 0
KRO1 091532Z 24012KT 12/08 A3027 RMK A01 T01230077  RH  074%=      5-min Rain = 0
KRO1 091533Z 24012KT 12/08 A3027 RMK A01 T01230077  RH  073%=      5-min Rain = 0
KRO1 091534Z 25011KT 12/08 A3027 RMK A01 T01230078  RH  074%=      5-min Rain = 0
KRO1 091535Z 25011KT 12/08 A3027 RMK A01 T01240080  RH  075%=      5-min Rain = 0
KRO1 091536Z 24011KT 13/08 A3027 RMK A01 T01250079  RH  074%=      5-min Rain = 0
KRO1 091537Z 24011KT 13/08 A3027 RMK A01 T01250079  RH  074%=      5-min Rain = 0
KRO1 091538Z 24012KT 13/08 A3027 RMK A01 T01260078  RH  073%=      5-min Rain = 0
KRO1 091539Z 25011KT 13/08 A3028 RMK A01 T01250079  RH  073%=      5-min Rain = 0
KRO1 091540Z 25011KT 13/08 A3028 RMK A01 T01260079  RH  073%=      5-min Rain = 0
KRO1 091541Z 25013KT 13/08 A3028 RMK A01 T01260079  RH  073%=      5-min Rain = 0
KRO1 091542Z 25012KT 13/08 A3028 RMK A01 T01260079  RH  073%=      5-min Rain = 0
KRO1 091543Z 25011KT 13/08 A3028 RMK A01 T01260079  RH  073%=      5-min Rain = 0
KRO1 091544Z 25009KT 13/08 A3028 RMK A01 T01260081  RH  074%=      5-min Rain = 0
KRO1 091545Z 25009KT 13/08 A3028 RMK A01 T01290083  RH  074%=      5-min Rain = 0
KRO1 091546Z 25012KT 13/08 A3028 RMK A01 T01300083  RH  073%=      5-min Rain = 0
KRO1 091547Z 25011KT 13/08 A3028 RMK A01 T01300080  RH  072%=      5-min Rain = 0
KRO1 091548Z 24011KT 13/08 A3028 RMK A01 T01300081  RH  072%=      5-min Rain = 0
KRO1 091549Z 24011KT 13/08 A3028 RMK A01 T01300081  RH  072%=      5-min Rain = 0
KRO1 091550Z 25010KT 13/08 A3028 RMK A01 T01300081  RH  072%=      5-min Rain = 0
KRO1 091551Z 25010KT 13/08 A3028 RMK A01 T01300082  RH  072%=      5-min Rain = 0
KRO1 091552Z 24009KT 13/08 A3028 RMK A01 T01310081  RH  072%=      5-min Rain = 0
KRO1 091553Z 24009KT 13/08 A3028 RMK A01 T01310082  RH  072%=      5-min Rain = 0
KRO1 091554Z 25010KT 13/08 A3028 RMK A01 T01320082  RH  072%=      5-min Rain = 0
KRO1 091555Z 23010KT 13/08 A3028 RMK A01 T01320083  RH  072%=      5-min Rain = 0
KRO1 091556Z 23010KT 13/08 A3028 RMK A01 T01330083  RH  072%=      5-min Rain = 0
KRO1 091557Z 24012KT 13/08 A3028 RMK A01 T01340082  RH  071%=      5-min Rain = 0
KRO1 091558Z 24012KT 13/08 A3028 RMK A01 T01340081  RH  071%=      5-min Rain = 0
KRO1 091559Z 24012KT 13/08 A3028 RMK A01 T01330081  RH  071%=      5-min Rain = 0
KRO1 091600Z 25011KT 13/08 A3028 RMK A01 T01330081  RH  071%=      5-min Rain = 0
KRO1 091601Z 25011KT 13/08 A3028 RMK A01 T01330082  RH  071%=      5-min Rain = 0
KRO1 091602Z 24010KT 14/08 A3028 RMK A01 T01350083  RH  071%=      5-min Rain = 0
KRO1 091603Z 25010KT 14/08 A3028 RMK A01 T01350082  RH  070%=      5-min Rain = 0
KRO1 091604Z 24010KT 14/08 A3028 RMK A01 T01350083  RH  071%=      5-min Rain = 0
KRO1 091605Z 25010KT 14/08 A3028 RMK A01 T01360082  RH  070%=      5-min Rain = 0
KRO1 091606Z 25011KT 14/08 A3028 RMK A01 T01360083  RH  070%=      5-min Rain = 0
KRO1 091607Z 24011KT 14/08 A3028 RMK A01 T01360083  RH  070%=      5-min Rain = 0
KRO1 091608Z 24010KT 14/08 A3028 RMK A01 T01360083  RH  070%=      5-min Rain = 0
KRO1 091609Z 23010KT 14/08 A3028 RMK A01 T01370084  RH  070%=      5-min Rain = 0
KRO1 091610Z 23009KT 14/08 A3028 RMK A01 T01380084  RH  070%=      5-min Rain = 0
KRO1 091611Z 23008KT 14/09 A3028 RMK A01 T01390086  RH  070%=      5-min Rain = 0
KRO1 091612Z 22010KT 14/09 A3028 RMK A01 T01410086  RH  069%=      5-min Rain = 0
KRO1 091613Z 23010KT 14/09 A3028 RMK A01 T01430086  RH  069%=      5-min Rain = 0
KRO1 091614Z 22009KT 14/09 A3028 RMK A01 T01430085  RH  068%=      5-min Rain = 0
KRO1 091615Z 23008KT 14/09 A3028 RMK A01 T01420086  RH  069%=      5-min Rain = 0
KRO1 091616Z 23008KT 14/09 A3028 RMK A01 T01440088  RH  069%=      5-min Rain = 0
KRO1 091617Z 24011KT 15/09 A3028 RMK A01 T01450087  RH  068%=      5-min Rain = 0
KRO1 091618Z 25009KT 15/09 A3028 RMK A01 T01450087  RH  068%=      5-min Rain = 0
KRO1 091619Z 25010KT 15/09 A3028 RMK A01 T01450086  RH  068%=      5-min Rain = 0
KRO1 091620Z 25009KT 14/08 A3028 RMK A01 T01440084  RH  067%=      5-min Rain = 0
KRO1 091621Z 25010KT 14/09 A3027 RMK A01 T01430086  RH  069%=      5-min Rain = 0
KRO1 091622Z 26011KT 14/09 A3027 RMK A01 T01430086  RH  068%=      5-min Rain = 0
KRO1 091623Z 24011KT 14/09 A3027 RMK A01 T01440087  RH  069%=      5-min Rain = 0
KRO1 091624Z 23010KT 15/09 A3027 RMK A01 T01450088  RH  068%=      5-min Rain = 0
KRO1 091625Z 23009KT 15/09 A3027 RMK A01 T01470087  RH  067%=      5-min Rain = 0
KRO1 091626Z 24009KT 15/09 A3027 RMK A01 T01470088  RH  068%=      5-min Rain = 0
KRO1 091627Z 25008KT 15/09 A3027 RMK A01 T01470087  RH  067%=      5-min Rain = 0
KRO1 091628Z 24007KT 15/09 A3027 RMK A01 T01480089  RH  068%=      5-min Rain = 0
KRO1 091629Z 24008KT 15/09 A3027 RMK A01 T01500092  RH  068%=      5-min Rain = 0
KRO1 091630Z 24008KT 15/09 A3027 RMK A01 T01510091  RH  067%=      5-min Rain = 0
KRO1 091631Z 23009KT 15/09 A3027 RMK A01 T01520091  RH  067%=      5-min Rain = 0
KRO1 091632Z 22008KT 15/09 A3027 RMK A01 T01530091  RH  066%=      5-min Rain = 0
KRO1 091633Z 23008KT 15/09 A3027 RMK A01 T01540093  RH  067%=      5-min Rain = 0
KRO1 091634Z 23008KT 16/09 A3027 RMK A01 T01550092  RH  066%=      5-min Rain = 0
KRO1 091635Z 24011KT 15/09 A3027 RMK A01 T01540091  RH  066%=      5-min Rain = 0
KRO1 091636Z 24008KT 15/09 A3027 RMK A01 T01530090  RH  066%=      5-min Rain = 0
KRO1 091637Z 23008KT 15/09 A3027 RMK A01 T01520091  RH  067%=      5-min Rain = 0
KRO1 091638Z 22007KT 15/09 A3027 RMK A01 T01520091  RH  067%=      5-min Rain = 0
KRO1 091639Z 24010KT 15/09 A3026 RMK A01 T01530091  RH  067%=      5-min Rain = 0
KRO1 091640Z 24010KT 15/09 A3026 RMK A01 T01530091  RH  067%=      5-min Rain = 0
KRO1 091641Z 24008KT 15/09 A3026 RMK A01 T01530091  RH  066%=      5-min Rain = 0
KRO1 091642Z 24007KT 15/09 A3026 RMK A01 T01540093  RH  067%=      5-min Rain = 0
KRO1 091643Z 22008KT 16/09 A3026 RMK A01 T01550094  RH  067%=      5-min Rain = 0
KRO1 091644Z 23008KT 16/09 A3026 RMK A01 T01570094  RH  066%=      5-min Rain = 0
KRO1 091645Z 23010KT 16/09 A3026 RMK A01 T01560092  RH  066%=      5-min Rain = 0
KRO1 091646Z 23008KT 16/09 A3026 RMK A01 T01550091  RH  066%=      5-min Rain = 0
KRO1 091647Z 23007KT 16/09 A3026 RMK A01 T01550092  RH  066%=      5-min Rain = 0
KRO1 091648Z 23009KT 16/09 A3026 RMK A01 T01550092  RH  066%=      5-min Rain = 0
KRO1 091649Z 23008KT 16/09 A3027 RMK A01 T01560091  RH  065%=      5-min Rain = 0
KRO1 091650Z 25007KT 16/09 A3027 RMK A01 T01570091  RH  065%=      5-min Rain = 0
KRO1 091651Z 24006KT 16/10 A3026 RMK A01 T01560095  RH  067%=      5-min Rain = 0
KRO1 091652Z 23007KT 16/10 A3026 RMK A01 T01590097  RH  067%=      5-min Rain = 0
KRO1 091653Z 23007KT 16/09 A3026 RMK A01 T01600093  RH  064%=      5-min Rain = 0
KRO1 091654Z 23006KT 16/09 A3026 RMK A01 T01590094  RH  065%=      5-min Rain = 0
KRO1 091655Z 23007KT 16/10 A3026 RMK A01 T01600095  RH  065%=      5-min Rain = 0
KRO1 091656Z 22007KT 16/10 A3026 RMK A01 T01600095  RH  065%=      5-min Rain = 0
KRO1 091657Z 22008KT 16/10 A3026 RMK A01 T01600095  RH  065%=      5-min Rain = 0
KRO1 091658Z 22008KT 16/10 A3026 RMK A01 T01600097  RH  066%=      5-min Rain = 0
KRO1 091659Z 24008KT 16/10 A3026 RMK A01 T01620098  RH  066%=      5-min Rain = 0
KRO1 091700Z 24008KT 16/09 A3026 RMK A01 T01620093  RH  064%=      5-min Rain = 0
KRO1 091701Z 22007KT 16/10 A3026 RMK A01 T01600096  RH  065%=      5-min Rain = 0
KRO1 091702Z 21009KT 16/10 A3026 RMK A01 T01620096  RH  065%=      5-min Rain = 0
KRO1 091703Z 21006KT 16/10 A3026 RMK A01 T01620097  RH  065%=      5-min Rain = 0
KRO1 091704Z 23009KT 16/10 A3026 RMK A01 T01630099  RH  066%=      5-min Rain = 0
KRO1 091705Z 23007KT 16/10 A3026 RMK A01 T01630097  RH  065%=      5-min Rain = 0
KRO1 091706Z 21007KT 16/10 A3026 RMK A01 T01640100  RH  066%=      5-min Rain = 0
KRO1 091707Z 22008KT 17/10 A3026 RMK A01 T01660100  RH  065%=      5-min Rain = 0
KRO1 091708Z 22009KT 17/10 A3026 RMK A01 T01680101  RH  065%=      5-min Rain = 0
KRO1 091709Z 21010KT 17/10 A3026 RMK A01 T01680098  RH  063%=      5-min Rain = 0
KRO1 091710Z 21009KT 16/10 A3026 RMK A01 T01640095  RH  064%=      5-min Rain = 0
KRO1 091711Z 21009KT 16/10 A3026 RMK A01 T01630099  RH  066%=      5-min Rain = 0
KRO1 091712Z 22010KT 17/10 A3026 RMK A01 T01650099  RH  065%=      5-min Rain = 0
KRO1 091713Z 22007KT 17/10 A3026 RMK A01 T01650098  RH  064%=      5-min Rain = 0
KRO1 091714Z 22007KT 17/10 A3026 RMK A01 T01660099  RH  064%=      5-min Rain = 0
KRO1 091715Z 23006KT 17/10 A3026 RMK A01 T01670098  RH  064%=      5-min Rain = 0
KRO1 091716Z 23009KT 17/10 A3026 RMK A01 T01670100  RH  064%=      5-min Rain = 0
KRO1 091717Z 22009KT 17/10 A3026 RMK A01 T01680097  RH  063%=      5-min Rain = 0
KRO1 091718Z 22008KT 17/10 A3025 RMK A01 T01660099  RH  064%=      5-min Rain = 0
KRO1 091719Z 22010KT 17/10 A3025 RMK A01 T01660100  RH  065%=      5-min Rain = 0
KRO1 091720Z 22010KT 17/10 A3025 RMK A01 T01660099  RH  064%=      5-min Rain = 0
KRO1 091721Z 22009KT 17/10 A3025 RMK A01 T01660099  RH  065%=      5-min Rain = 0
KRO1 091722Z 22011KT 17/10 A3025 RMK A01 T01660101  RH  065%=      5-min Rain = 0
KRO1 091723Z 23010KT 17/10 A3025 RMK A01 T01670099  RH  064%=      5-min Rain = 0
KRO1 091724Z 23008KT 17/10 A3025 RMK A01 T01680102  RH  065%=      5-min Rain = 0
KRO1 091725Z 23009KT 17/10 A3025 RMK A01 T01710103  RH  065%=      5-min Rain = 0
KRO1 091726Z 22009KT 17/10 A3025 RMK A01 T01710101  RH  064%=      5-min Rain = 0
KRO1 091727Z 23010KT 17/10 A3025 RMK A01 T01700101  RH  064%=      5-min Rain = 0
KRO1 091728Z 22009KT 17/10 A3025 RMK A01 T01680101  RH  064%=      5-min Rain = 0
KRO1 091729Z 21009KT 17/10 A3025 RMK A01 T01680101  RH  065%=      5-min Rain = 0
KRO1 091730Z 22010KT 17/10 A3025 RMK A01 T01690103  RH  065%=      5-min Rain = 0
KRO1 091731Z 22009KT 17/10 A3025 RMK A01 T01700101  RH  064%=      5-min Rain = 0
KRO1 091732Z 23009KT 17/10 A3025 RMK A01 T01700104  RH  065%=      5-min Rain = 0
KRO1 091733Z 24009KT 17/10 A3025 RMK A01 T01720103  RH  064%=      5-min Rain = 0
KRO1 091734Z 25007KT 17/10 A3025 RMK A01 T01730103  RH  064%=      5-min Rain = 0
KRO1 091735Z 23008KT 18/11 A3024 RMK A01 T01750105  RH  064%=      5-min Rain = 0
KRO1 091736Z 22008KT 18/10 A3024 RMK A01 T01760103  RH  062%=      5-min Rain = 0
KRO1 091737Z 21008KT 17/11 A3024 RMK A01 T01740106  RH  064%=      5-min Rain = 0
KRO1 091738Z 22009KT 17/10 A3024 RMK A01 T01740104  RH  063%=      5-min Rain = 0
KRO1 091739Z 21007KT 18/11 A3024 RMK A01 T01750106  RH  064%=      5-min Rain = 0
KRO1 091740Z 22009KT 18/11 A3024 RMK A01 T01770105  RH  063%=      5-min Rain = 0
KRO1 091741Z 22008KT 18/11 A3024 RMK A01 T01760105  RH  063%=      5-min Rain = 0
KRO1 091742Z 24009KT 18/11 A3024 RMK A01 T01770107  RH  063%=      5-min Rain = 0
KRO1 091743Z 23010KT 18/10 A3024 RMK A01 T01760103  RH  062%=      5-min Rain = 0
KRO1 091744Z 23008KT 17/10 A3024 RMK A01 T01740101  RH  062%=      5-min Rain = 0
KRO1 091745Z 23008KT 17/10 A3024 RMK A01 T01730102  RH  063%=      5-min Rain = 0
KRO1 091746Z 23009KT 17/10 A3024 RMK A01 T01740104  RH  063%=      5-min Rain = 0
KRO1 091747Z 22009KT 18/10 A3024 RMK A01 T01750104  RH  063%=      5-min Rain = 0
KRO1 091748Z 23009KT 18/10 A3024 RMK A01 T01760103  RH  062%=      5-min Rain = 0
KRO1 091749Z 24010KT 18/10 A3024 RMK A01 T01760103  RH  062%=      5-min Rain = 0
KRO1 091750Z 24010KT 18/10 A3024 RMK A01 T01750104  RH  063%=      5-min Rain = 0
KRO1 091751Z 23009KT 17/10 A3024 RMK A01 T01730101  RH  062%=      5-min Rain = 0
KRO1 091752Z 23008KT 17/10 A3024 RMK A01 T01720103  RH  064%=      5-min Rain = 0
KRO1 091753Z 23008KT 17/10 A3024 RMK A01 T01730104  RH  064%=      5-min Rain = 0
KRO1 091754Z 21009KT 17/11 A3024 RMK A01 T01740105  RH  064%=      5-min Rain = 0
KRO1 091755Z 22007KT 17/11 A3024 RMK A01 T01740108  RH  065%=      5-min Rain = 0
KRO1 091756Z 23008KT 18/11 A3024 RMK A01 T01770108  RH  064%=      5-min Rain = 0
KRO1 091757Z 24007KT 18/10 A3024 RMK A01 T01780104  RH  062%=      5-min Rain = 0
KRO1 091758Z 22009KT 18/11 A3024 RMK A01 T01780107  RH  063%=      5-min Rain = 0
KRO1 091759Z 23007KT 18/11 A3023 RMK A01 T01790106  RH  062%=      5-min Rain = 0
KRO1 091800Z 22009KT 18/11 A3023 RMK A01 T01800108  RH  063%=      5-min Rain = 0
KRO1 091801Z 23008KT 18/11 A3023 RMK A01 T01820110  RH  063%=      5-min Rain = 0
KRO1 091802Z 22009KT 18/11 A3023 RMK A01 T01820111  RH  063%=      5-min Rain = 0
KRO1 091803Z 23009KT 19/11 A3023 RMK A01 T01850112  RH  062%=      5-min Rain = 0
KRO1 091804Z 23009KT 19/11 A3023 RMK A01 T01860110  RH  061%=      5-min Rain = 0
KRO1 091805Z 23010KT 19/11 A3023 RMK A01 T01850108  RH  061%=      5-min Rain = 0
KRO1 091806Z 23008KT 18/11 A3023 RMK A01 T01830107  RH  061%=      5-min Rain = 0
KRO1 091807Z 25010KT 18/11 A3023 RMK A01 T01820108  RH  062%=      5-min Rain = 0
KRO1 091808Z 23010KT 18/11 A3023 RMK A01 T01820109  RH  062%=      5-min Rain = 0
KRO1 091809Z 22010KT 18/11 A3023 RMK A01 T01830108  RH  062%=      5-min Rain = 0
KRO1 091810Z 21011KT 18/11 A3023 RMK A01 T01830110  RH  062%=      5-min Rain = 0
KRO1 091811Z 21011KT 18/11 A3022 RMK A01 T01840108  RH  061%=      5-min Rain = 0
KRO1 091812Z 22010KT 18/11 A3022 RMK A01 T01830109  RH  062%=      5-min Rain = 0
KRO1 091813Z 24009KT 18/11 A3022 RMK A01 T01840109  RH  062%=      5-min Rain = 0
KRO1 091814Z 25011KT 18/11 A3022 RMK A01 T01840108  RH  061%=      5-min Rain = 0
KRO1 091815Z 25009KT 18/11 A3022 RMK A01 T01830107  RH  061%=      5-min Rain = 0
KRO1 091816Z 25009KT 18/11 A3022 RMK A01 T01820109  RH  062%=      5-min Rain = 0
KRO1 091817Z 22007KT 18/11 A3022 RMK A01 T01840109  RH  062%=      5-min Rain = 0
KRO1 091818Z 23009KT 19/11 A3022 RMK A01 T01850111  RH  062%=      5-min Rain = 0
KRO1 091819Z 24009KT 19/11 A3022 RMK A01 T01870107  RH  060%=      5-min Rain = 0
KRO1 091820Z 23008KT 19/11 A3022 RMK A01 T01850108  RH  061%=      5-min Rain = 0
KRO1 091821Z 24008KT 19/11 A3022 RMK A01 T01860112  RH  062%=      5-min Rain = 0
KRO1 091822Z 25011KT 19/11 A3022 RMK A01 T01870108  RH  060%=      5-min Rain = 0
KRO1 091823Z 23008KT 19/11 A3022 RMK A01 T01860108  RH  061%=      5-min Rain = 0
KRO1 091824Z 22009KT 19/11 A3022 RMK A01 T01860110  RH  061%=      5-min Rain = 0
KRO1 091825Z 23008KT 19/11 A3022 RMK A01 T01870110  RH  061%=      5-min Rain = 0
KRO1 091826Z 22009KT 19/11 A3022 RMK A01 T01880110  RH  060%=      5-min Rain = 0
KRO1 091827Z 21006KT 19/11 A3022 RMK A01 T01870112  RH  062%=      5-min Rain = 0
KRO1 091828Z 22006KT 19/11 A3022 RMK A01 T01870112  RH  062%=      5-min Rain = 0
KRO1 091829Z 23008KT 19/11 A3022 RMK A01 T01880113  RH  062%=      5-min Rain = 0
KRO1 091830Z 23010KT 19/11 A3021 RMK A01 T01880113  RH  062%=      5-min Rain = 0
KRO1 091831Z 22010KT 19/11 A3021 RMK A01 T01890110  RH  060%=      5-min Rain = 0
KRO1 091832Z 21009KT 19/11 A3021 RMK A01 T01870110  RH  060%=      5-min Rain = 0
KRO1 091833Z 22010KT 19/11 A3021 RMK A01 T01870111  RH  061%=      5-min Rain = 0
KRO1 091834Z 20011KT 19/12 A3021 RMK A01 T01890115  RH  062%=      5-min Rain = 0
KRO1 091835Z 20011KT 19/11 A3021 RMK A01 T01900111  RH  060%=      5-min Rain = 0
KRO1 091836Z 21012KT 19/11 A3021 RMK A01 T01900113  RH  061%=      5-min Rain = 0
KRO1 091837Z 22011KT 19/11 A3021 RMK A01 T01890110  RH  060%=      5-min Rain = 0
KRO1 091838Z 23010KT 19/11 A3021 RMK A01 T01880111  RH  061%=      5-min Rain = 0
KRO1 091839Z 22011KT 19/11 A3021 RMK A01 T01890113  RH  061%=      5-min Rain = 0
KRO1 091840Z 22011KT 19/11 A3021 RMK A01 T01900111  RH  060%=      5-min Rain = 0
KRO1 091841Z 21010KT 19/12 A3021 RMK A01 T01890115  RH  062%=      5-min Rain = 0
KRO1 091842Z 21010KT 19/11 A3021 RMK A01 T01890113  RH  061%=      5-min Rain = 0
KRO1 091843Z 21007KT 19/11 A3021 RMK A01 T01880112  RH  061%=      5-min Rain = 0
KRO1 091844Z 21009G14KT 19/12 A3021 RMK A01 T01880116  RH  063%=      5-min Rain = 0
KRO1 091845Z 22011KT 19/11 A3021 RMK A01 T01900113  RH  061%=      5-min Rain = 0
KRO1 091846Z 23010KT 19/11 A3021 RMK A01 T01900114  RH  061%=      5-min Rain = 0
KRO1 091847Z 23009KT 19/11 A3021 RMK A01 T01900112  RH  061%=      5-min Rain = 0
KRO1 091848Z 20009KT 19/11 A3021 RMK A01 T01900114  RH  061%=      5-min Rain = 0
KRO1 091849Z 21010KT 19/11 A302 RMK A01 T01900114  RH  061%=      5-min Rain = 0
KRO1 091850Z 21010KT 19/11 A302 RMK A01 T01910114  RH  061%=      5-min Rain = 0
KRO1 091851Z 21010KT 19/12 A302 RMK A01 T01910117  RH  062%=      5-min Rain = 0
KRO1 091852Z 22010KT 19/12 A302 RMK A01 T01930115  RH  061%=      5-min Rain = 0
KRO1 091853Z 22008KT 19/11 A302 RMK A01 T01920114  RH  060%=      5-min Rain = 0
KRO1 091854Z 22013KT 19/12 A302 RMK A01 T01930115  RH  061%=      5-min Rain = 0
KRO1 091855Z 21010KT 19/11 A302 RMK A01 T01920111  RH  060%=      5-min Rain = 0
KRO1 091856Z 20010KT 19/11 A302 RMK A01 T01910113  RH  060%=      5-min Rain = 0
KRO1 091857Z 20012KT 19/11 A302 RMK A01 T01910113  RH  061%=      5-min Rain = 0
KRO1 091858Z 20013KT 19/11 A302 RMK A01 T01910113  RH  061%=      5-min Rain = 0
KRO1 091859Z 20012KT 19/11 A302 RMK A01 T01910114  RH  061%=      5-min Rain = 0
KRO1 091900Z 20009KT 19/11 A302 RMK A01 T01910113  RH  061%=      5-min Rain = 0
KRO1 091901Z 21010KT 19/12 A302 RMK A01 T01930115  RH  061%=      5-min Rain = 0
KRO1 091902Z 21009KT 19/11 A302 RMK A01 T01930114  RH  060%=      5-min Rain = 0
KRO1 091903Z 21010KT 19/12 A302 RMK A01 T01930116  RH  061%=      5-min Rain = 0
KRO1 091904Z 20010KT 19/12 A302 RMK A01 T01940118  RH  061%=      5-min Rain = 0
KRO1 091905Z 21010KT 20/12 A302 RMK A01 T01960117  RH  060%=      5-min Rain = 0
KRO1 091906Z 22012KT 20/12 A3019 RMK A01 T01980116  RH  059%=      5-min Rain = 0
KRO1 091907Z 21009KT 20/12 A3019 RMK A01 T01970115  RH  059%=      5-min Rain = 0
KRO1 091908Z 21010KT 20/12 A3019 RMK A01 T01960116  RH  060%=      5-min Rain = 0
KRO1 091909Z 21011KT 20/12 A3019 RMK A01 T01970115  RH  059%=      5-min Rain = 0
KRO1 091910Z 21008KT 20/12 A3019 RMK A01 T01970115  RH  059%=      5-min Rain = 0
KRO1 091911Z 23008KT 20/12 A3019 RMK A01 T01970116  RH  059%=      5-min Rain = 0
KRO1 091912Z 22007KT 20/12 A3019 RMK A01 T01970115  RH  059%=      5-min Rain = 0
KRO1 091913Z 22010KT 20/12 A3019 RMK A01 T01980117  RH  059%=      5-min Rain = 0
KRO1 091914Z 23009KT 20/12 A3019 RMK A01 T01990116  RH  059%=      5-min Rain = 0
KRO1 091915Z 24011KT 20/12 A3019 RMK A01 T02000116  RH  058%=      5-min Rain = 0
KRO1 091916Z 23010KT 20/11 A3019 RMK A01 T02000113  RH  057%=      5-min Rain = 0
KRO1 091917Z 22007KT 20/11 A3019 RMK A01 T01980111  RH  057%=      5-min Rain = 0
KRO1 091918Z 21007KT 20/12 A3019 RMK A01 T01960115  RH  059%=      5-min Rain = 0
KRO1 091919Z 23012KT 20/12 A3019 RMK A01 T01980117  RH  059%=      5-min Rain = 0
KRO1 091920Z 24009KT 20/12 A3019 RMK A01 T01990116  RH  059%=      5-min Rain = 0
KRO1 091921Z 22007KT 20/12 A3019 RMK A01 T01990117  RH  059%=      5-min Rain = 0
KRO1 091922Z 21008KT 20/12 A3018 RMK A01 T02010116  RH  058%=      5-min Rain = 0
KRO1 091923Z 21009G14KT 20/12 A3018 RMK A01 T02010116  RH  058%=      5-min Rain = 0
KRO1 091924Z 22011KT 20/12 A3018 RMK A01 T02010119  RH  059%=      5-min Rain = 0
KRO1 091925Z 21012KT 20/12 A3018 RMK A01 T02020116  RH  058%=      5-min Rain = 0
KRO1 091926Z 22010KT 20/12 A3018 RMK A01 T02020116  RH  058%=      5-min Rain = 0
KRO1 091927Z 23010KT 20/12 A3018 RMK A01 T02010116  RH  058%=      5-min Rain = 0
KRO1 091928Z 22008KT 20/11 A3018 RMK A01 T01990114  RH  058%=      5-min Rain = 0
KRO1 091929Z 21010KT 20/11 A3018 RMK A01 T01990113  RH  058%=      5-min Rain = 0
KRO1 091930Z 20009G14KT 20/11 A3018 RMK A01 T01990112  RH  057%=      5-min Rain = 0
KRO1 091931Z 21011KT 20/12 A3018 RMK A01 T01980116  RH  059%=      5-min Rain = 0
KRO1 091932Z 21011KT 20/12 A3018 RMK A01 T02000117  RH  059%=      5-min Rain = 0
KRO1 091933Z 20011KT 20/11 A3018 RMK A01 T02000113  RH  057%=      5-min Rain = 0
KRO1 091934Z 21013KT 20/11 A3018 RMK A01 T01990114  RH  058%=      5-min Rain = 0
KRO1 091935Z 21012KT 20/11 A3018 RMK A01 T01980114  RH  058%=      5-min Rain = 0
KRO1 091936Z 21013KT 20/11 A3018 RMK A01 T01990114  RH  058%=      5-min Rain = 0
KRO1 091937Z 22008KT 20/11 A3018 RMK A01 T01980113  RH  058%=      5-min Rain = 0
KRO1 091938Z 21007KT 20/11 A3018 RMK A01 T01990113  RH  058%=      5-min Rain = 0
KRO1 091939Z 22010KT 20/11 A3017 RMK A01 T01990114  RH  058%=      5-min Rain = 0
KRO1 091940Z 22011KT 20/11 A3017 RMK A01 T02000112  RH  057%=      5-min Rain = 0
KRO1 091941Z 22010KT 20/11 A3017 RMK A01 T02000112  RH  057%=      5-min Rain = 0
KRO1 091942Z 22009KT 20/11 A3017 RMK A01 T02000113  RH  057%=      5-min Rain = 0
KRO1 091943Z 22007KT 20/11 A3017 RMK A01 T02000114  RH  058%=      5-min Rain = 0
KRO1 091944Z 21009KT 20/11 A3017 RMK A01 T02020114  RH  057%=      5-min Rain = 0
KRO1 091945Z 22010KT 20/11 A3017 RMK A01 T02030114  RH  057%=      5-min Rain = 0
KRO1 091946Z 22011KT 20/12 A3017 RMK A01 T02030116  RH  057%=      5-min Rain = 0
KRO1 091947Z 22010KT 20/12 A3017 RMK A01 T02040115  RH  056%=      5-min Rain = 0
KRO1 091948Z 22009KT 20/12 A3017 RMK A01 T02040116  RH  057%=      5-min Rain = 0
KRO1 091949Z 21010KT 21/12 A3017 RMK A01 T02050116  RH  057%=      5-min Rain = 0
KRO1 091950Z 20010KT 21/12 A3017 RMK A01 T02060116  RH  056%=      5-min Rain = 0
KRO1 091951Z 21010KT 21/12 A3017 RMK A01 T02060115  RH  056%=      5-min Rain = 0
KRO1 091952Z 22008KT 21/12 A3017 RMK A01 T02060117  RH  057%=      5-min Rain = 0
KRO1 091953Z 21009KT 21/12 A3017 RMK A01 T02060118  RH  057%=      5-min Rain = 0
KRO1 091954Z 21010KT 21/12 A3017 RMK A01 T02070118  RH  056%=      5-min Rain = 0
KRO1 091955Z 21010KT 21/11 A3017 RMK A01 T02080114  RH  055%=      5-min Rain = 0
KRO1 091956Z 21011KT 21/11 A3017 RMK A01 T02060113  RH  055%=      5-min Rain = 0
KRO1 091957Z 21011KT 21/12 A3016 RMK A01 T02050115  RH  056%=      5-min Rain = 0
KRO1 091958Z 22010KT 21/12 A3016 RMK A01 T02050116  RH  057%=      5-min Rain = 0
KRO1 091959Z 22010KT 21/11 A3016 RMK A01 T02050114  RH  056%=      5-min Rain = 0
KRO1 092000Z 22008KT 21/12 A3016 RMK A01 T02050116  RH  057%=      5-min Rain = 0
KRO1 092001Z 21009KT 21/11 A3016 RMK A01 T02060114  RH  055%=      5-min Rain = 0
KRO1 092002Z 21012KT 21/12 A3016 RMK A01 T02060115  RH  056%=      5-min Rain = 0
KRO1 092003Z 22011KT 21/12 A3016 RMK A01 T02060115  RH  056%=      5-min Rain = 0
KRO1 092004Z 21010KT 21/11 A3016 RMK A01 T02060114  RH  055%=      5-min Rain = 0
KRO1 092005Z 21009KT 21/11 A3016 RMK A01 T02060113  RH  055%=      5-min Rain = 0
KRO1 092006Z 22009KT 21/12 A3016 RMK A01 T02050115  RH  056%=      5-min Rain = 0
KRO1 092007Z 22010KT 21/11 A3016 RMK A01 T02050113  RH  056%=      5-min Rain = 0
KRO1 092008Z 21009KT 21/11 A3016 RMK A01 T02050113  RH  055%=      5-min Rain = 0
KRO1 092009Z 21011KT 21/11 A3016 RMK A01 T02050114  RH  056%=      5-min Rain = 0
KRO1 092010Z 22010KT 21/12 A3016 RMK A01 T02050116  RH  057%=      5-min Rain = 0
KRO1 092011Z 23007KT 21/12 A3016 RMK A01 T02060115  RH  056%=      5-min Rain = 0
KRO1 092012Z 21007KT 21/12 A3016 RMK A01 T02080115  RH  055%=      5-min Rain = 0
KRO1 092013Z 21006KT 21/12 A3016 RMK A01 T02090115  RH  055%=      5-min Rain = 0
KRO1 092014Z 21006G11KT 21/11 A3016 RMK A01 T02100113  RH  054%=      5-min Rain = 0
KRO1 092015Z 22010KT 21/12 A3016 RMK A01 T02100115  RH  055%=      5-min Rain = 0
KRO1 092016Z 22011KT 21/12 A3016 RMK A01 T02100117  RH  055%=      5-min Rain = 0
KRO1 092017Z 22010KT 21/12 A3016 RMK A01 T02090115  RH  055%=      5-min Rain = 0
KRO1 092018Z 21010KT 21/12 A3016 RMK A01 T02090116  RH  055%=      5-min Rain = 0
KRO1 092019Z 21009KT 21/12 A3016 RMK A01 T02080116  RH  055%=      5-min Rain = 0
KRO1 092020Z 22008KT 21/11 A3016 RMK A01 T02090112  RH  054%=      5-min Rain = 0
KRO1 092021Z 20010KT 21/12 A3016 RMK A01 T02080115  RH  055%=      5-min Rain = 0
KRO1 092022Z 24010KT 21/12 A3016 RMK A01 T02100115  RH  055%=      5-min Rain = 0
KRO1 092023Z 22009KT 21/12 A3016 RMK A01 T02100116  RH  055%=      5-min Rain = 0
KRO1 092024Z 20009KT 21/11 A3016 RMK A01 T02110113  RH  054%=      5-min Rain = 0
KRO1 092025Z 20010KT 21/12 A3016 RMK A01 T02110115  RH  054%=      5-min Rain = 0
KRO1 092026Z 22010KT 21/11 A3016 RMK A01 T02110114  RH  054%=      5-min Rain = 0
KRO1 092027Z 22007KT 21/11 A3016 RMK A01 T02100110  RH  053%=      5-min Rain = 0
KRO1 092028Z 21008KT 21/12 A3016 RMK A01 T02100115  RH  055%=      5-min Rain = 0
KRO1 092029Z 21008KT 21/11 A3015 RMK A01 T02110111  RH  053%=      5-min Rain = 0
KRO1 092030Z 21006KT 21/11 A3015 RMK A01 T02110112  RH  053%=      5-min Rain = 0
KRO1 092031Z 20009KT 21/12 A3015 RMK A01 T02130116  RH  054%=      5-min Rain = 0
KRO1 092032Z 21010KT 21/12 A3015 RMK A01 T02140115  RH  053%=      5-min Rain = 0
KRO1 092033Z 21009KT 21/11 A3015 RMK A01 T02140114  RH  053%=      5-min Rain = 0
KRO1 092034Z 21008KT 21/12 A3015 RMK A01 T02130115  RH  053%=      5-min Rain = 0
KRO1 092035Z 21011KT 21/11 A3015 RMK A01 T02130112  RH  053%=      5-min Rain = 0
KRO1 092036Z 21011KT 21/11 A3015 RMK A01 T02130112  RH  053%=      5-min Rain = 0
KRO1 092037Z 20010KT 21/11 A3015 RMK A01 T02120113  RH  053%=      5-min Rain = 0
KRO1 092038Z 20011KT 21/12 A3015 RMK A01 T02120115  RH  054%=      5-min Rain = 0
KRO1 092039Z 22011KT 21/11 A3015 RMK A01 T02120113  RH  053%=      5-min Rain = 0
KRO1 092040Z 22011KT 21/11 A3015 RMK A01 T02110112  RH  053%=      5-min Rain = 0
KRO1 092041Z 22009KT 21/11 A3015 RMK A01 T02110112  RH  053%=      5-min Rain = 0
KRO1 092042Z 20008KT 21/11 A3015 RMK A01 T02100111  RH  053%=      5-min Rain = 0
KRO1 092043Z 20008KT 21/11 A3015 RMK A01 T02110109  RH  052%=      5-min Rain = 0
KRO1 092044Z 22009KT 21/11 A3015 RMK A01 T02110113  RH  053%=      5-min Rain = 0
KRO1 092045Z 22012KT 21/11 A3015 RMK A01 T02110113  RH  053%=      5-min Rain = 0
KRO1 092046Z 22009KT 21/11 A3015 RMK A01 T02120113  RH  053%=      5-min Rain = 0
KRO1 092047Z 22008KT 21/12 A3015 RMK A01 T02110117  RH  055%=      5-min Rain = 0
KRO1 092048Z 21009KT 21/12 A3015 RMK A01 T02120116  RH  054%=      5-min Rain = 0
KRO1 092049Z 21009KT 21/11 A3015 RMK A01 T02120113  RH  053%=      5-min Rain = 0
KRO1 092050Z 21011KT 21/11 A3014 RMK A01 T02120112  RH  053%=      5-min Rain = 0
KRO1 092051Z 22010KT 21/11 A3014 RMK A01 T02120109  RH  052%=      5-min Rain = 0
KRO1 092052Z 22008KT 21/11 A3014 RMK A01 T02110111  RH  053%=      5-min Rain = 0
KRO1 092053Z 21009KT 21/11 A3014 RMK A01 T02120113  RH  053%=      5-min Rain = 0
KRO1 092054Z 20008KT 21/11 A3014 RMK A01 T02130111  RH  052%=      5-min Rain = 0
KRO1 092055Z 20009KT 21/11 A3014 RMK A01 T02130111  RH  052%=      5-min Rain = 0
KRO1 092056Z 20009KT 21/11 A3014 RMK A01 T02130111  RH  052%=      5-min Rain = 0
KRO1 092057Z 20009KT 21/11 A3014 RMK A01 T02130112  RH  052%=      5-min Rain = 0
KRO1 092058Z 19008KT 21/11 A3014 RMK A01 T02130110  RH  052%=      5-min Rain = 0
KRO1 092059Z 20008KT 21/11 A3014 RMK A01 T02140113  RH  053%=      5-min Rain = 0
KRO1 092100Z 20010KT 22/11 A3014 RMK A01 T02150112  RH  052%=      5-min Rain = 0
KRO1 092101Z 21010KT 22/11 A3014 RMK A01 T02150110  RH  051%=      5-min Rain = 0
KRO1 092102Z 22008KT 22/11 A3014 RMK A01 T02150112  RH  052%=      5-min Rain = 0
KRO1 092103Z 22010KT 22/11 A3014 RMK A01 T02160112  RH  052%=      5-min Rain = 0
KRO1 092104Z 22008KT 22/11 A3014 RMK A01 T02160111  RH  051%=      5-min Rain = 0
KRO1 092105Z 23008KT 22/11 A3014 RMK A01 T02160111  RH  051%=      5-min Rain = 0
KRO1 092106Z 22007KT 22/11 A3014 RMK A01 T02160112  RH  052%=      5-min Rain = 0
KRO1 092107Z 20007KT 22/11 A3014 RMK A01 T02160114  RH  052%=      5-min Rain = 0
KRO1 092108Z 20008KT 22/11 A3014 RMK A01 T02160112  RH  051%=      5-min Rain = 0
KRO1 092109Z 21009KT 22/11 A3014 RMK A01 T02170113  RH  052%=      5-min Rain = 0
KRO1 092110Z 20009KT 22/12 A3014 RMK A01 T02170116  RH  053%=      5-min Rain = 0
KRO1 092111Z 21011KT 22/11 A3014 RMK A01 T02170114  RH  052%=      5-min Rain = 0
KRO1 092112Z 21010KT 22/11 A3014 RMK A01 T02180110  RH  050%=      5-min Rain = 0
KRO1 092113Z 22009KT 22/11 A3014 RMK A01 T02160110  RH  051%=      5-min Rain = 0
KRO1 092114Z 21007KT 22/11 A3014 RMK A01 T02160110  RH  051%=      5-min Rain = 0
KRO1 092115Z 19011KT 22/11 A3014 RMK A01 T02170109  RH  050%=      5-min Rain = 0
KRO1 092116Z 20009KT 22/11 A3014 RMK A01 T02170109  RH  050%=      5-min Rain = 0
KRO1 092117Z 20012KT 22/11 A3014 RMK A01 T02170109  RH  050%=      5-min Rain = 0
KRO1 092118Z 22010KT 22/11 A3014 RMK A01 T02170112  RH  051%=      5-min Rain = 0
KRO1 092119Z 20010KT 22/11 A3014 RMK A01 T02150112  RH  052%=      5-min Rain = 0
KRO1 092120Z 21009KT 21/11 A3014 RMK A01 T02140112  RH  052%=      5-min Rain = 0
KRO1 092121Z 20009KT 21/11 A3014 RMK A01 T02140113  RH  052%=      5-min Rain = 0
KRO1 092122Z 21010KT 22/11 A3014 RMK A01 T02160108  RH  050%=      5-min Rain = 0
KRO1 092123Z 21010KT 22/10 A3014 RMK A01 T02160104  RH  049%=      5-min Rain = 0
KRO1 092124Z 21008KT 22/11 A3014 RMK A01 T02160107  RH  050%=      5-min Rain = 0
KRO1 092125Z 21010KT 22/11 A3014 RMK A01 T02170109  RH  050%=      5-min Rain = 0
KRO1 092126Z 21010KT 22/11 A3013 RMK A01 T02160107  RH  050%=      5-min Rain = 0
KRO1 092127Z 21010KT 22/11 A3013 RMK A01 T02160109  RH  051%=      5-min Rain = 0
KRO1 092128Z 21009KT 22/11 A3013 RMK A01 T02150111  RH  051%=      5-min Rain = 0
KRO1 092129Z 20009KT 22/11 A3013 RMK A01 T02150110  RH  051%=      5-min Rain = 0
KRO1 092130Z 21009KT 22/11 A3013 RMK A01 T02150111  RH  051%=      5-min Rain = 0
KRO1 092131Z 21007KT 22/11 A3013 RMK A01 T02150112  RH  052%=      5-min Rain = 0
KRO1 092132Z 23009KT 22/11 A3013 RMK A01 T02160109  RH  051%=      5-min Rain = 0
KRO1 092133Z 21008KT 22/11 A3013 RMK A01 T02170105  RH  049%=      5-min Rain = 0
KRO1 092134Z 21010KT 22/10 A3013 RMK A01 T02170104  RH  049%=      5-min Rain = 0
KRO1 092135Z 22008KT 22/11 A3013 RMK A01 T02170108  RH  050%=      5-min Rain = 0
KRO1 092136Z 21008KT 22/11 A3013 RMK A01 T02180110  RH  050%=      5-min Rain = 0
KRO1 092137Z 22008KT 22/11 A3013 RMK A01 T02180110  RH  050%=      5-min Rain = 0
KRO1 092138Z 22009KT 22/11 A3013 RMK A01 T02180108  RH  050%=      5-min Rain = 0
KRO1 092139Z 22009KT 22/11 A3013 RMK A01 T02170109  RH  050%=      5-min Rain = 0
KRO1 092140Z 21009KT 22/11 A3013 RMK A01 T02170108  RH  050%=      5-min Rain = 0
KRO1 092141Z 21007KT 22/11 A3013 RMK A01 T02160110  RH  051%=      5-min Rain = 0
KRO1 092142Z 23009KT 22/11 A3013 RMK A01 T02170110  RH  050%=      5-min Rain = 0
KRO1 092143Z 22010KT 22/10 A3013 RMK A01 T02180104  RH  048%=      5-min Rain = 0
KRO1 092144Z 22009KT 22/10 A3013 RMK A01 T02180101  RH  047%=      5-min Rain = 0
KRO1 092145Z 22009KT 22/10 A3013 RMK A01 T02180102  RH  048%=      5-min Rain = 0
KRO1 092146Z 23008KT 22/10 A3013 RMK A01 T02170102  RH  048%=      5-min Rain = 0
KRO1 092147Z 22008KT 22/10 A3013 RMK A01 T02170103  RH  048%=      5-min Rain = 0
KRO1 092148Z 22009KT 22/11 A3013 RMK A01 T02170107  RH  049%=      5-min Rain = 0
KRO1 092149Z 22009KT 22/11 A3013 RMK A01 T02170106  RH  049%=      5-min Rain = 0
KRO1 092150Z 21008KT 22/11 A3013 RMK A01 T02170105  RH  049%=      5-min Rain = 0
KRO1 092151Z 22010KT 22/11 A3013 RMK A01 T02170107  RH  050%=      5-min Rain = 0
KRO1 092152Z 22010KT 22/11 A3013 RMK A01 T02170109  RH  050%=      5-min Rain = 0
KRO1 092153Z 22009KT 22/11 A3013 RMK A01 T02170109  RH  050%=      5-min Rain = 0
KRO1 092154Z 22008KT 22/11 A3012 RMK A01 T02160109  RH  050%=      5-min Rain = 0
KRO1 092155Z 22009KT 22/11 A3012 RMK A01 T02170110  RH  051%=      5-min Rain = 0
KRO1 092156Z 22011KT 22/11 A3012 RMK A01 T02170107  RH  049%=      5-min Rain = 0
KRO1 092157Z 22011KT 22/11 A3012 RMK A01 T02170108  RH  050%=      5-min Rain = 0
KRO1 092158Z 24010KT 22/11 A3012 RMK A01 T02160106  RH  050%=      5-min Rain = 0
KRO1 092159Z 24008KT 22/11 A3012 RMK A01 T02150108  RH  051%=      5-min Rain = 0
KRO1 092200Z 24009KT 22/11 A3012 RMK A01 T02150110  RH  051%=      5-min Rain = 0
KRO1 092201Z 24009KT 22/11 A3012 RMK A01 T02150108  RH  050%=      5-min Rain = 0
KRO1 092202Z 24010KT 22/11 A3012 RMK A01 T02150108  RH  050%=      5-min Rain = 0
KRO1 092203Z 23007KT 22/11 A3012 RMK A01 T02150106  RH  050%=      5-min Rain = 0
KRO1 092204Z 22008KT 21/11 A3012 RMK A01 T02140106  RH  050%=      5-min Rain = 0
KRO1 092205Z 22008KT 21/11 A3012 RMK A01 T02140107  RH  050%=      5-min Rain = 0
KRO1 092206Z 22009KT 22/11 A3012 RMK A01 T02150106  RH  050%=      5-min Rain = 0
KRO1 092207Z 22008KT 22/11 A3012 RMK A01 T02150109  RH  051%=      5-min Rain = 0
KRO1 092208Z 23008KT 22/11 A3012 RMK A01 T02160107  RH  050%=      5-min Rain = 0
KRO1 092209Z 23007KT 22/11 A3012 RMK A01 T02160107  RH  050%=      5-min Rain = 0
KRO1 092210Z 23006KT 22/11 A3012 RMK A01 T02160108  RH  050%=      5-min Rain = 0
KRO1 092211Z 22007KT 22/11 A3012 RMK A01 T02170110  RH  051%=      5-min Rain = 0
KRO1 092212Z 21007KT 22/11 A3012 RMK A01 T02170110  RH  050%=      5-min Rain = 0
KRO1 092213Z 22006KT 22/11 A3012 RMK A01 T02170108  RH  050%=      5-min Rain = 0
KRO1 092214Z 20007KT 22/11 A3012 RMK A01 T02170109  RH  050%=      5-min Rain = 0
KRO1 092215Z 19006KT 22/11 A3012 RMK A01 T02170113  RH  051%=      5-min Rain = 0
KRO1 092216Z 18006KT 22/11 A3012 RMK A01 T02170110  RH  051%=      5-min Rain = 0
KRO1 092217Z 20008KT 22/11 A3012 RMK A01 T02170111  RH  051%=      5-min Rain = 0
KRO1 092218Z 22007KT 22/11 A3012 RMK A01 T02170111  RH  051%=      5-min Rain = 0
KRO1 092219Z 20009KT 22/11 A3012 RMK A01 T02170111  RH  051%=      5-min Rain = 0
KRO1 092220Z 21009KT 22/11 A3012 RMK A01 T02160109  RH  050%=      5-min Rain = 0
KRO1 092221Z 21008KT 22/11 A3012 RMK A01 T02160108  RH  050%=      5-min Rain = 0
KRO1 092222Z 21009KT 22/11 A3012 RMK A01 T02150109  RH  051%=      5-min Rain = 0
KRO1 092223Z 22009KT 21/11 A3012 RMK A01 T02140108  RH  051%=      5-min Rain = 0
KRO1 092224Z 22008KT 21/11 A3012 RMK A01 T02140108  RH  051%=      5-min Rain = 0
KRO1 092225Z 20008KT 21/11 A3012 RMK A01 T02140108  RH  051%=      5-min Rain = 0
KRO1 092226Z 19008KT 21/11 A3012 RMK A01 T02130112  RH  052%=      5-min Rain = 0
KRO1 092227Z 19008KT 21/11 A3012 RMK A01 T02140112  RH  052%=      5-min Rain = 0
KRO1 092228Z 19008KT 21/11 A3012 RMK A01 T02130112  RH  052%=      5-min Rain = 0
KRO1 092229Z 20008KT 21/11 A3012 RMK A01 T02120112  RH  053%=      5-min Rain = 0
KRO1 092230Z 20007KT 21/11 A3012 RMK A01 T02120110  RH  052%=      5-min Rain = 0
KRO1 092231Z 19008KT 21/11 A3012 RMK A01 T02120112  RH  053%=      5-min Rain = 0
KRO1 092232Z 19008KT 21/11 A3011 RMK A01 T02120110  RH  052%=      5-min Rain = 0
KRO1 092233Z 20007KT 21/11 A3011 RMK A01 T02100112  RH  053%=      5-min Rain = 0
KRO1 092234Z 19007KT 21/11 A3011 RMK A01 T02100110  RH  053%=      5-min Rain = 0
KRO1 092235Z 20006KT 21/11 A3011 RMK A01 T02090110  RH  053%=      5-min Rain = 0
KRO1 092236Z 19005KT 21/11 A3011 RMK A01 T02090113  RH  054%=      5-min Rain = 0
KRO1 092237Z 20004KT 21/11 A3011 RMK A01 T02090113  RH  054%=      5-min Rain = 0
KRO1 092238Z 19006KT 21/11 A3011 RMK A01 T02090113  RH  054%=      5-min Rain = 0
KRO1 092239Z 20006KT 21/11 A3011 RMK A01 T02090112  RH  054%=      5-min Rain = 0
KRO1 092240Z 19006KT 21/11 A3011 RMK A01 T02100112  RH  053%=      5-min Rain = 0
KRO1 092241Z 19007KT 21/11 A3011 RMK A01 T02100110  RH  053%=      5-min Rain = 0
KRO1 092242Z 18007KT 21/11 A3011 RMK A01 T02090111  RH  053%=      5-min Rain = 0
KRO1 092243Z 19007KT 21/11 A3011 RMK A01 T02080110  RH  053%=      5-min Rain = 0
KRO1 092244Z 19007KT 21/11 A3011 RMK A01 T02070109  RH  053%=      5-min Rain = 0
KRO1 092245Z 18006KT 21/11 A3011 RMK A01 T02060110  RH  054%=      5-min Rain = 0
KRO1 092246Z 19006KT 21/11 A3011 RMK A01 T02050112  RH  055%=      5-min Rain = 0
KRO1 092247Z 19007KT 21/11 A3011 RMK A01 T02050112  RH  055%=      5-min Rain = 0
KRO1 092248Z 19006KT 21/11 A3011 RMK A01 T02050111  RH  055%=      5-min Rain = 0
KRO1 092249Z 19006KT 21/11 A3011 RMK A01 T02050113  RH  056%=      5-min Rain = 0
KRO1 092250Z 19006KT 21/11 A3011 RMK A01 T02050112  RH  055%=      5-min Rain = 0
KRO1 092251Z 19007KT 21/11 A3011 RMK A01 T02050111  RH  055%=      5-min Rain = 0
KRO1 092252Z 20007KT 21/11 A3011 RMK A01 T02050112  RH  055%=      5-min Rain = 0
KRO1 092253Z 20007KT 20/11 A3011 RMK A01 T02040112  RH  055%=      5-min Rain = 0
KRO1 092254Z 19006KT 20/11 A3011 RMK A01 T02040112  RH  055%=      5-min Rain = 0
KRO1 092255Z 19007KT 20/11 A3011 RMK A01 T02030110  RH  055%=      5-min Rain = 0
KRO1 092256Z 19007KT 20/11 A3011 RMK A01 T02030108  RH  054%=      5-min Rain = 0
KRO1 092257Z 19006KT 20/11 A3011 RMK A01 T02030109  RH  055%=      5-min Rain = 0
KRO1 092258Z 19006KT 20/11 A3011 RMK A01 T02030110  RH  055%=      5-min Rain = 0
KRO1 092259Z 19007KT 20/11 A3011 RMK A01 T02020109  RH  055%=      5-min Rain = 0
KRO1 092300Z 20007KT 20/11 A3011 RMK A01 T02010109  RH  055%=      5-min Rain = 0
KRO1 092301Z 20006KT 20/11 A3011 RMK A01 T02010108  RH  055%=      5-min Rain = 0
KRO1 092302Z 20006KT 20/11 A3011 RMK A01 T02010110  RH  056%=      5-min Rain = 0
KRO1 092303Z 20007KT 20/11 A3011 RMK A01 T02000108  RH  055%=      5-min Rain = 0
KRO1 092304Z 20006KT 20/11 A3011 RMK A01 T02000109  RH  056%=      5-min Rain = 0
KRO1 092305Z 20006KT 20/11 A3011 RMK A01 T02000110  RH  056%=      5-min Rain = 0
KRO1 092306Z 20006KT 20/11 A3011 RMK A01 T02000110  RH  056%=      5-min Rain = 0
KRO1 092307Z 20007KT 20/11 A3011 RMK A01 T01990110  RH  056%=      5-min Rain = 0
KRO1 092308Z 20007KT 20/11 A3011 RMK A01 T01990108  RH  056%=      5-min Rain = 0
KRO1 092309Z 19006KT 20/11 A3011 RMK A01 T01980108  RH  056%=      5-min Rain = 0
KRO1 092310Z 19006KT 20/11 A3011 RMK A01 T01970110  RH  057%=      5-min Rain = 0
KRO1 092311Z 19006KT 20/11 A3011 RMK A01 T01960110  RH  058%=      5-min Rain = 0
KRO1 092312Z 19006KT 20/11 A3011 RMK A01 T01950111  RH  058%=      5-min Rain = 0
KRO1 092313Z 19006KT 20/11 A3011 RMK A01 T01950111  RH  058%=      5-min Rain = 0
KRO1 092314Z 19006KT 19/11 A3011 RMK A01 T01940112  RH  059%=      5-min Rain = 0
KRO1 092315Z 19006KT 19/11 A3011 RMK A01 T01930112  RH  059%=      5-min Rain = 0
KRO1 092316Z 19006KT 19/11 A3011 RMK A01 T01930113  RH  060%=      5-min Rain = 0
KRO1 092317Z 19007KT 19/11 A3011 RMK A01 T01920113  RH  060%=      5-min Rain = 0
KRO1 092318Z 19007KT 19/11 A3011 RMK A01 T01910113  RH  061%=      5-min Rain = 0
KRO1 092319Z 19006KT 19/11 A3011 RMK A01 T01900114  RH  061%=      5-min Rain = 0
KRO1 092320Z 19007KT 19/11 A3011 RMK A01 T01890113  RH  061%=      5-min Rain = 0
KRO1 092321Z 19006KT 19/11 A3011 RMK A01 T01890113  RH  061%=      5-min Rain = 0
KRO1 092322Z 19006KT 19/11 A3011 RMK A01 T01880114  RH  062%=      5-min Rain = 0
KRO1 092323Z 19006KT 19/11 A3011 RMK A01 T01870114  RH  062%=      5-min Rain = 0
KRO1 092324Z 19006KT 19/11 A3011 RMK A01 T01860114  RH  063%=      5-min Rain = 0
KRO1 092325Z 19006KT 19/12 A3011 RMK A01 T01850115  RH  063%=      5-min Rain = 0
KRO1 092326Z 19006KT 18/12 A3011 RMK A01 T01840115  RH  064%=      5-min Rain = 0
KRO1 092327Z 19006KT 18/11 A3011 RMK A01 T01820114  RH  064%=      5-min Rain = 0
KRO1 092328Z 19006KT 18/11 A3011 RMK A01 T01810114  RH  065%=      5-min Rain = 0
KRO1 092329Z 19005KT 18/11 A3011 RMK A01 T01810114  RH  065%=      5-min Rain = 0
KRO1 092330Z 19005KT 18/11 A3011 RMK A01 T01800114  RH  065%=      5-min Rain = 0
KRO1 092331Z 19006KT 18/11 A3011 RMK A01 T01790114  RH  065%=      5-min Rain = 0
KRO1 092332Z 19006KT 18/11 A3011 RMK A01 T01780113  RH  066%=      5-min Rain = 0
KRO1 092333Z 19005KT 18/11 A3011 RMK A01 T01780113  RH  066%=      5-min Rain = 0
KRO1 092334Z 19006KT 18/11 A3011 RMK A01 T01770114  RH  066%=      5-min Rain = 0
KRO1 092335Z 19006KT 18/11 A3011 RMK A01 T01760113  RH  067%=      5-min Rain = 0
KRO1 092336Z 19006KT 18/11 A3011 RMK A01 T01750113  RH  067%=      5-min Rain = 0
KRO1 092337Z 19006KT 17/11 A3011 RMK A01 T01740113  RH  067%=      5-min Rain = 0
KRO1 092338Z 19006KT 17/11 A3011 RMK A01 T01730113  RH  068%=      5-min Rain = 0
KRO1 092339Z 18006KT 17/11 A3011 RMK A01 T01720113  RH  068%=      5-min Rain = 0
KRO1 092340Z 18005KT 17/11 A3011 RMK A01 T01710113  RH  069%=      5-min Rain = 0
KRO1 092341Z 18006KT 17/11 A3011 RMK A01 T01700114  RH  069%=      5-min Rain = 0
KRO1 092342Z 18006KT 17/11 A3011 RMK A01 T01690114  RH  070%=      5-min Rain = 0
KRO1 092343Z 18006KT 17/11 A3011 RMK A01 T01690114  RH  070%=      5-min Rain = 0
KRO1 092344Z 18006KT 17/11 A3011 RMK A01 T01680113  RH  070%=      5-min Rain = 0
KRO1 092345Z 18006KT 17/11 A3011 RMK A01 T01680114  RH  070%=      5-min Rain = 0
KRO1 092346Z 18005KT 17/11 A3011 RMK A01 T01670114  RH  071%=      5-min Rain = 0
KRO1 092347Z 17005KT 17/11 A3011 RMK A01 T01670114  RH  071%=      5-min Rain = 0
KRO1 092348Z 17005KT 17/11 A3011 RMK A01 T01660114  RH  072%=      5-min Rain = 0
KRO1 092349Z 17005KT 17/11 A3011 RMK A01 T01650114  RH  072%=      5-min Rain = 0
KRO1 092350Z 17005KT 16/11 A3011 RMK A01 T01640114  RH  072%=      5-min Rain = 0
KRO1 092351Z 17005KT 16/11 A3011 RMK A01 T01630114  RH  073%=      5-min Rain = 0
KRO1 092352Z 17006KT 16/12 A3011 RMK A01 T01610115  RH  074%=      5-min Rain = 0
KRO1 092353Z 17006KT 16/12 A3011 RMK A01 T01590115  RH  075%=      5-min Rain = 0
KRO1 092354Z 17006KT 16/12 A3011 RMK A01 T01580115  RH  076%=      5-min Rain = 0
KRO1 092355Z 17006KT 16/12 A3011 RMK A01 T01570115  RH  076%=      5-min Rain = 0
KRO1 092356Z 17006KT 16/12 A3011 RMK A01 T01550115  RH  077%=      5-min Rain = 0
KRO1 092357Z 17006KT 15/11 A3011 RMK A01 T01540114  RH  077%=      5-min Rain = 0
KRO1 092358Z 17006KT 15/11 A3011 RMK A01 T01530114  RH  077%=      5-min Rain = 0
KRO1 092359Z 17006KT 15/11 A3011 RMK A01 T01520113  RH  078%=      5-min Rain = 0
KRO1 100000Z 17006KT 15/11 A3012 RMK A01 T01510114  RH  079%=      5-min Rain = 0
KRO1 100001Z 17006KT 15/12 A3012 RMK A01 T01490115  RH  080%=      5-min Rain = 0
KRO1 100002Z 17006KT 15/12 A3011 RMK A01 T01480115  RH  081%=      5-min Rain = 0
KRO1 100003Z 17006KT 15/12 A3011 RMK A01 T01470115  RH  081%=      5-min Rain = 0
KRO1 100004Z 18006KT 15/11 A3011 RMK A01 T01460114  RH  081%=      5-min Rain = 0
KRO1 100005Z 18006KT 15/11 A3011 RMK A01 T01460114  RH  081%=      5-min Rain = 0
KRO1 100006Z 18006KT 15/12 A3011 RMK A01 T01460115  RH  081%=      5-min Rain = 0
KRO1 100007Z 17006KT 15/12 A3011 RMK A01 T01460115  RH  081%=      5-min Rain = 0
KRO1 100008Z 17006KT 15/11 A3011 RMK A01 T01460114  RH  081%=      5-min Rain = 0
KRO1 100009Z 17005KT 15/11 A3011 RMK A01 T01460114  RH  081%=      5-min Rain = 0
KRO1 100010Z 17005KT 15/11 A3011 RMK A01 T01460113  RH  081%=      5-min Rain = 0
KRO1 100011Z 17005KT 15/11 A3011 RMK A01 T01470114  RH  080%=      5-min Rain = 0
KRO1 100012Z 17005KT 15/11 A3011 RMK A01 T01460113  RH  080%=      5-min Rain = 0
KRO1 100013Z 17005KT 15/11 A3011 RMK A01 T01460113  RH  081%=      5-min Rain = 0
KRO1 100014Z 17005KT 15/11 A3011 RMK A01 T01450114  RH  081%=      5-min Rain = 0
KRO1 100015Z 17005KT 14/11 A3011 RMK A01 T01440113  RH  082%=      5-min Rain = 0
KRO1 100016Z 17005KT 14/11 A3011 RMK A01 T01440113  RH  081%=      5-min Rain = 0
KRO1 100017Z 17005KT 14/11 A3011 RMK A01 T01440112  RH  081%=      5-min Rain = 0
KRO1 100018Z 17005KT 14/11 A3011 RMK A01 T01440112  RH  081%=      5-min Rain = 0
KRO1 100019Z 17005KT 14/11 A3011 RMK A01 T01430112  RH  082%=      5-min Rain = 0
KRO1 100020Z 17005KT 14/11 A3011 RMK A01 T01430113  RH  082%=      5-min Rain = 0
KRO1 100021Z 17005KT 14/11 A3011 RMK A01 T01430113  RH  082%=      5-min Rain = 0
KRO1 100022Z 17005KT 14/11 A3011 RMK A01 T01420113  RH  082%=      5-min Rain = 0
KRO1 100023Z 17005KT 14/11 A3011 RMK A01 T01430112  RH  082%=      5-min Rain = 0
KRO1 100024Z 17005KT 14/11 A3011 RMK A01 T01420111  RH  081%=      5-min Rain = 0
KRO1 100025Z 17005KT 14/11 A3011 RMK A01 T01430110  RH  081%=      5-min Rain = 0
KRO1 100026Z 17005KT 14/11 A3011 RMK A01 T01440110  RH  080%=      5-min Rain = 0
KRO1 100027Z 17004KT 15/11 A3011 RMK A01 T01450111  RH  080%=      5-min Rain = 0
KRO1 100028Z 17004KT 15/11 A3011 RMK A01 T01450111  RH  080%=      5-min Rain = 0
KRO1 100029Z 17004KT 14/11 A3011 RMK A01 T01440111  RH  081%=      5-min Rain = 0
KRO1 100030Z 17004KT 15/11 A3011 RMK A01 T01450112  RH  081%=      5-min Rain = 0
KRO1 100031Z 17004KT 14/11 A3011 RMK A01 T01440112  RH  081%=      5-min Rain = 0
KRO1 100032Z 17004KT 14/11 A3011 RMK A01 T01440112  RH  081%=      5-min Rain = 0
KRO1 100033Z 17004KT 14/11 A3011 RMK A01 T01430111  RH  081%=      5-min Rain = 0
KRO1 100034Z 17004KT 14/11 A3011 RMK A01 T01430112  RH  081%=      5-min Rain = 0
KRO1 100035Z 17004KT 14/11 A3011 RMK A01 T01430111  RH  081%=      5-min Rain = 0
KRO1 100036Z 17004KT 14/11 A3011 RMK A01 T01430111  RH  081%=      5-min Rain = 0
KRO1 100037Z 17004KT 14/11 A3011 RMK A01 T01430111  RH  081%=      5-min Rain = 0
KRO1 100038Z 17004KT 14/11 A3011 RMK A01 T01430111  RH  081%=      5-min Rain = 0
KRO1 100039Z 17004KT 14/11 A3011 RMK A01 T01430110  RH  081%=      5-min Rain = 0
KRO1 100040Z 17004KT 14/11 A3011 RMK A01 T01430110  RH  080%=      5-min Rain = 0
KRO1 100041Z 17004KT 14/11 A3011 RMK A01 T01430109  RH  080%=      5-min Rain = 0
KRO1 100042Z 17004KT 14/11 A3011 RMK A01 T01430109  RH  080%=      5-min Rain = 0
KRO1 100043Z 17004KT 14/11 A3011 RMK A01 T01430108  RH  079%=      5-min Rain = 0
KRO1 100044Z 16003KT 14/11 A3011 RMK A01 T01430108  RH  079%=      5-min Rain = 0
KRO1 100045Z 16003KT 14/11 A3011 RMK A01 T01430108  RH  079%=      5-min Rain = 0
KRO1 100046Z 16003KT 14/11 A3011 RMK A01 T01430108  RH  080%=      5-min Rain = 0
KRO1 100047Z 16003KT 14/11 A3011 RMK A01 T01420108  RH  080%=      5-min Rain = 0
KRO1 100048Z 16002KT 14/11 A3011 RMK A01 T01410107  RH  080%=      5-min Rain = 0
KRO1 100049Z 16002KT 14/11 A3011 RMK A01 T01410107  RH  080%=      5-min Rain = 0
KRO1 100050Z 16002KT 14/11 A3012 RMK A01 T01400107  RH  081%=      5-min Rain = 0
KRO1 100051Z 16002KT 14/11 A3012 RMK A01 T01390107  RH  081%=      5-min Rain = 0
KRO1 100052Z 16002KT 14/11 A3012 RMK A01 T01390108  RH  081%=      5-min Rain = 0
KRO1 100053Z 15002KT 14/11 A3012 RMK A01 T01390108  RH  082%=      5-min Rain = 0
KRO1 100054Z 16003KT 14/11 A3012 RMK A01 T01390108  RH  082%=      5-min Rain = 0
KRO1 100055Z 16003KT 14/11 A3012 RMK A01 T01390108  RH  082%=      5-min Rain = 0
KRO1 100056Z 16003KT 14/11 A3012 RMK A01 T01390108  RH  082%=      5-min Rain = 0
KRO1 100057Z 16003KT 14/11 A3012 RMK A01 T01390108  RH  081%=      5-min Rain = 0
KRO1 100058Z 16003KT 14/11 A3012 RMK A01 T01400107  RH  081%=      5-min Rain = 0
KRO1 100059Z 16003KT 14/11 A3012 RMK A01 T01410107  RH  080%=      5-min Rain = 0
KRO1 100100Z 17003KT 14/11 A3012 RMK A01 T01410106  RH  080%=      5-min Rain = 0
KRO1 100101Z 18003KT 14/11 A3012 RMK A01 T01420106  RH  079%=      5-min Rain = 0
KRO1 100102Z 18003KT 14/11 A3012 RMK A01 T01420106  RH  079%=      5-min Rain = 0
KRO1 100103Z 18003KT 14/11 A3012 RMK A01 T01410106  RH  080%=      5-min Rain = 0
KRO1 100104Z 18004KT 14/11 A3012 RMK A01 T01410107  RH  080%=      5-min Rain = 0
KRO1 100105Z 18003KT 14/11 A3012 RMK A01 T01410107  RH  080%=      5-min Rain = 0
KRO1 100106Z 18004KT 14/11 A3012 RMK A01 T01410106  RH  080%=      5-min Rain = 0
KRO1 100107Z 17004KT 14/11 A3012 RMK A01 T01410107  RH  080%=      5-min Rain = 0
KRO1 100108Z 17004KT 14/11 A3012 RMK A01 T01410106  RH  080%=      5-min Rain = 0
KRO1 100109Z 17004KT 14/11 A3012 RMK A01 T01410106  RH  079%=      5-min Rain = 0
KRO1 100110Z 17003KT 14/11 A3012 RMK A01 T01400105  RH  079%=      5-min Rain = 0
KRO1 100111Z 17004KT 14/11 A3012 RMK A01 T01410105  RH  079%=      5-min Rain = 0
KRO1 100112Z 17004KT 14/11 A3012 RMK A01 T01410105  RH  079%=      5-min Rain = 0
KRO1 100113Z 17004KT 14/11 A3012 RMK A01 T01410105  RH  079%=      5-min Rain = 0
KRO1 100114Z 18004KT 14/10 A3012 RMK A01 T01410104  RH  078%=      5-min Rain = 0
KRO1 100115Z 18004KT 14/10 A3012 RMK A01 T01410104  RH  078%=      5-min Rain = 0
KRO1 100116Z 18004KT 14/10 A3012 RMK A01 T01410104  RH  078%=      5-min Rain = 0
KRO1 100117Z 18004KT 14/10 A3012 RMK A01 T01410104  RH  078%=      5-min Rain = 0
KRO1 100118Z 18004KT 14/10 A3012 RMK A01 T01400104  RH  079%=      5-min Rain = 0
KRO1 100119Z 19004KT 14/10 A3012 RMK A01 T01390104  RH  079%=      5-min Rain = 0
KRO1 100120Z 20003KT 14/10 A3012 RMK A01 T01380104  RH  080%=      5-min Rain = 0
KRO1 100121Z 22002KT 14/10 A3012 RMK A01 T01360102  RH  080%=      5-min Rain = 0
KRO1 100122Z 21003KT 13/10 A3012 RMK A01 T01330102  RH  081%=      5-min Rain = 0
KRO1 100123Z 20003KT 13/10 A3012 RMK A01 T01320103  RH  082%=      5-min Rain = 0
KRO1 100124Z 20003KT 13/10 A3012 RMK A01 T01320102  RH  082%=      5-min Rain = 0
KRO1 100125Z 21003KT 13/10 A3012 RMK A01 T01320103  RH  083%=      5-min Rain = 0
KRO1 100126Z 21003KT 13/10 A3012 RMK A01 T01310103  RH  083%=      5-min Rain = 0
KRO1 100127Z 21003KT 13/10 A3012 RMK A01 T01310103  RH  083%=      5-min Rain = 0
KRO1 100128Z 21004KT 13/10 A3012 RMK A01 T01300103  RH  084%=      5-min Rain = 0
KRO1 100129Z 21004KT 13/10 A3012 RMK A01 T01300103  RH  084%=      5-min Rain = 0
KRO1 100130Z 21004KT 13/10 A3012 RMK A01 T01300103  RH  084%=      5-min Rain = 0
KRO1 100131Z 21005KT 13/10 A3012 RMK A01 T01300104  RH  084%=      5-min Rain = 0
KRO1 100132Z 21005KT 13/10 A3012 RMK A01 T01290104  RH  085%=      5-min Rain = 0
KRO1 100133Z 21005KT 13/10 A3012 RMK A01 T01290103  RH  084%=      5-min Rain = 0
KRO1 100134Z 21005KT 13/10 A3012 RMK A01 T01290103  RH  084%=      5-min Rain = 0
KRO1 100135Z 21005KT 13/10 A3012 RMK A01 T01280102  RH  084%=      5-min Rain = 0
KRO1 100136Z 20005KT 13/10 A3012 RMK A01 T01270102  RH  084%=      5-min Rain = 0
KRO1 100137Z 20005KT 13/10 A3012 RMK A01 T01270102  RH  085%=      5-min Rain = 0
KRO1 100138Z 21006KT 13/10 A3012 RMK A01 T01270102  RH  085%=      5-min Rain = 0
KRO1 100139Z 21006KT 13/10 A3012 RMK A01 T01270102  RH  085%=      5-min Rain = 0
KRO1 100140Z 21006KT 13/10 A3012 RMK A01 T01260102  RH  085%=      5-min Rain = 0
KRO1 100141Z 21006KT 13/10 A3012 RMK A01 T01260102  RH  085%=      5-min Rain = 0
KRO1 100142Z 21006KT 13/10 A3012 RMK A01 T01250101  RH  085%=      5-min Rain = 0
KRO1 100143Z 21006KT 13/10 A3012 RMK A01 T01260102  RH  085%=      5-min Rain = 0
KRO1 100144Z 21006KT 13/10 A3012 RMK A01 T01250101  RH  085%=      5-min Rain = 0
KRO1 100145Z 22006KT 12/10 A3012 RMK A01 T01240101  RH  085%=      5-min Rain = 0
KRO1 100146Z 21005KT 12/10 A3012 RMK A01 T01240100  RH  086%=      5-min Rain = 0
KRO1 100147Z 21005KT 12/10 A3012 RMK A01 T01230101  RH  086%=      5-min Rain = 0
KRO1 100148Z 21006KT 12/10 A3012 RMK A01 T01230101  RH  086%=      5-min Rain = 0
KRO1 100149Z 21006KT 12/10 A3012 RMK A01 T01230101  RH  087%=      5-min Rain = 0
KRO1 100150Z 21006KT 12/10 A3012 RMK A01 T01230102  RH  087%=      5-min Rain = 0
KRO1 100151Z 22006KT 12/10 A3012 RMK A01 T01240102  RH  087%=      5-min Rain = 0
KRO1 100152Z 22006KT 12/10 A3012 RMK A01 T01240102  RH  087%=      5-min Rain = 0
KRO1 100153Z 22006KT 12/10 A3012 RMK A01 T01230101  RH  087%=      5-min Rain = 0
KRO1 100154Z 22005KT 12/10 A3012 RMK A01 T01230101  RH  087%=      5-min Rain = 0
KRO1 100155Z 22005KT 12/10 A3012 RMK A01 T01220101  RH  087%=      5-min Rain = 0
KRO1 100156Z 22005KT 12/10 A3012 RMK A01 T01220102  RH  087%=      5-min Rain = 0
KRO1 100157Z 22005KT 12/10 A3012 RMK A01 T01230102  RH  087%=      5-min Rain = 0
KRO1 100158Z 22006KT 12/10 A3012 RMK A01 T01230102  RH  087%=      5-min Rain = 0
KRO1 100159Z 21006KT 12/10 A3012 RMK A01 T01230102  RH  087%=      5-min Rain = 0
KRO1 100200Z 21006KT 12/10 A3012 RMK A01 T01240102  RH  086%=      5-min Rain = 0
KRO1 100201Z 21006KT 12/10 A3012 RMK A01 T01240102  RH  086%=      5-min Rain = 0
KRO1 100202Z 22006KT 12/10 A3012 RMK A01 T01240102  RH  086%=      5-min Rain = 0
KRO1 100203Z 21006KT 12/10 A3012 RMK A01 T01240102  RH  086%=      5-min Rain = 0
KRO1 100204Z 21006KT 12/10 A3012 RMK A01 T01240101  RH  086%=      5-min Rain = 0
KRO1 100205Z 21006KT 12/10 A3012 RMK A01 T01230101  RH  086%=      5-min Rain = 0
KRO1 100206Z 21006KT 12/10 A3012 RMK A01 T01230101  RH  087%=      5-min Rain = 0
KRO1 100207Z 21005KT 12/10 A3012 RMK A01 T01230101  RH  087%=      5-min Rain = 0
KRO1 100208Z 21005KT 12/10 A3012 RMK A01 T01230102  RH  087%=      5-min Rain = 0
KRO1 100209Z 21005KT 12/10 A3012 RMK A01 T01230102  RH  087%=      5-min Rain = 0
KRO1 100210Z 21005KT 12/10 A3012 RMK A01 T01230102  RH  087%=      5-min Rain = 0
KRO1 100211Z 21005KT 12/10 A3012 RMK A01 T01230102  RH  087%=      5-min Rain = 0
KRO1 100212Z 22005KT 12/10 A3012 RMK A01 T01230102  RH  087%=      5-min Rain = 0
KRO1 100213Z 22005KT 12/10 A3012 RMK A01 T01230101  RH  086%=      5-min Rain = 0
KRO1 100214Z 22005KT 12/10 A3012 RMK A01 T01230101  RH  087%=      5-min Rain = 0
KRO1 100215Z 22005KT 12/10 A3012 RMK A01 T01230102  RH  087%=      5-min Rain = 0
KRO1 100216Z 22006KT 12/10 A3012 RMK A01 T01230101  RH  087%=      5-min Rain = 0
KRO1 100217Z 22006KT 12/10 A3012 RMK A01 T01230101  RH  087%=      5-min Rain = 0
KRO1 100218Z 22006KT 12/10 A3012 RMK A01 T01230101  RH  086%=      5-min Rain = 0
KRO1 100219Z 22006KT 12/10 A3012 RMK A01 T01240101  RH  086%=      5-min Rain = 0
KRO1 100220Z 21006KT 12/10 A3012 RMK A01 T01240102  RH  086%=      5-min Rain = 0
KRO1 100221Z 22006KT 13/10 A3012 RMK A01 T01250102  RH  086%=      5-min Rain = 0
KRO1 100222Z 23006KT 13/10 A3012 RMK A01 T01250101  RH  085%=      5-min Rain = 0
KRO1 100223Z 22006KT 13/10 A3012 RMK A01 T01260101  RH  085%=      5-min Rain = 0
KRO1 100224Z 22007KT 13/10 A3012 RMK A01 T01250101  RH  085%=      5-min Rain = 0
KRO1 100225Z 21007KT 13/10 A3012 RMK A01 T01250102  RH  085%=      5-min Rain = 0
KRO1 100226Z 21007KT 13/10 A3012 RMK A01 T01260102  RH  085%=      5-min Rain = 0
KRO1 100227Z 22006KT 13/10 A3012 RMK A01 T01270101  RH  084%=      5-min Rain = 0
KRO1 100228Z 22007KT 13/10 A3012 RMK A01 T01270102  RH  084%=      5-min Rain = 0
KRO1 100229Z 22007KT 13/10 A3012 RMK A01 T01270102  RH  085%=      5-min Rain = 0
KRO1 100230Z 21007KT 13/10 A3012 RMK A01 T01280103  RH  085%=      5-min Rain = 0
KRO1 100231Z 21007KT 13/10 A3012 RMK A01 T01290102  RH  084%=      5-min Rain = 0
KRO1 100232Z 21006KT 13/10 A3012 RMK A01 T01300102  RH  083%=      5-min Rain = 0
KRO1 100233Z 22006KT 13/10 A3012 RMK A01 T01310103  RH  083%=      5-min Rain = 0
KRO1 100234Z 22006KT 13/10 A3012 RMK A01 T01310103  RH  083%=      5-min Rain = 0
KRO1 100235Z 22006KT 13/10 A3012 RMK A01 T01310103  RH  083%=      5-min Rain = 0
KRO1 100236Z 23005KT 13/10 A3012 RMK A01 T01320103  RH  083%=      5-min Rain = 0
KRO1 100237Z 23006KT 13/10 A3012 RMK A01 T01310102  RH  082%=      5-min Rain = 0
KRO1 100238Z 23006KT 13/10 A3012 RMK A01 T01320102  RH  082%=      5-min Rain = 0
KRO1 100239Z 23006KT 13/10 A3012 RMK A01 T01320102  RH  082%=      5-min Rain = 0
KRO1 100240Z 22006KT 13/10 A3012 RMK A01 T01320101  RH  081%=      5-min Rain = 0
KRO1 100241Z 22007KT 13/10 A3012 RMK A01 T01320101  RH  081%=      5-min Rain = 0
KRO1 100242Z 22007KT 13/10 A3012 RMK A01 T01300100  RH  082%=      5-min Rain = 0
KRO1 100243Z 22007KT 13/10 A3012 RMK A01 T01300100  RH  082%=      5-min Rain = 0
KRO1 100244Z 22007KT 13/10 A3012 RMK A01 T01290100  RH  083%=      5-min Rain = 0
KRO1 100245Z 22008KT 13/10 A3012 RMK A01 T01290101  RH  083%=      5-min Rain = 0
KRO1 100246Z 22008KT 13/10 A3012 RMK A01 T01290100  RH  083%=      5-min Rain = 0
KRO1 100247Z 22008KT 13/10 A3012 RMK A01 T01300100  RH  082%=      5-min Rain = 0
KRO1 100248Z 22008KT 13/10 A3012 RMK A01 T01300100  RH  082%=      5-min Rain = 0
KRO1 100249Z 22007KT 13/10 A3012 RMK A01 T01300100  RH  082%=      5-min Rain = 0
KRO1 100250Z 22008KT 13/10 A3012 RMK A01 T01300100  RH  082%=      5-min Rain = 0
KRO1 100251Z 22007KT 13/10 A3012 RMK A01 T01300099  RH  082%=      5-min Rain = 0
KRO1 100252Z 22007KT 13/10 A3012 RMK A01 T01310099  RH  081%=      5-min Rain = 0
KRO1 100253Z 22007KT 13/10 A3012 RMK A01 T01320098  RH  080%=      5-min Rain = 0
KRO1 100254Z 22007KT 13/10 A3012 RMK A01 T01320098  RH  080%=      5-min Rain = 0
KRO1 100255Z 22007KT 13/10 A3012 RMK A01 T01330099  RH  080%=      5-min Rain = 0
KRO1 100256Z 22007KT 13/10 A3012 RMK A01 T01330098  RH  079%=      5-min Rain = 0
KRO1 100257Z 22007KT 13/10 A3012 RMK A01 T01330098  RH  079%=      5-min Rain = 0
KRO1 100258Z 22007KT 13/10 A3012 RMK A01 T01340098  RH  079%=      5-min Rain = 0
KRO1 100259Z 22007KT 13/10 A3012 RMK A01 T01340098  RH  079%=      5-min Rain = 0
KRO1 100300Z 22008KT 13/10 A3012 RMK A01 T01340098  RH  079%=      5-min Rain = 0
KRO1 100301Z 22007KT 13/10 A3012 RMK A01 T01330098  RH  079%=      5-min Rain = 0
KRO1 100302Z 22008KT 13/10 A3012 RMK A01 T01330097  RH  079%=      5-min Rain = 0
KRO1 100303Z 22007KT 13/10 A3012 RMK A01 T01330097  RH  079%=      5-min Rain = 0
KRO1 100304Z 22007KT 13/10 A3011 RMK A01 T01320097  RH  079%=      5-min Rain = 0
KRO1 100305Z 22007KT 13/10 A3011 RMK A01 T01300097  RH  080%=      5-min Rain = 0
KRO1 100306Z 22007KT 13/10 A3011 RMK A01 T01300097  RH  080%=      5-min Rain = 0
KRO1 100307Z 21006KT 13/10 A3011 RMK A01 T01290096  RH  081%=      5-min Rain = 0
KRO1 100308Z 19006KT 13/10 A3012 RMK A01 T01290097  RH  081%=      5-min Rain = 0
KRO1 100309Z 15007KT 13/10 A3012 RMK A01 T01280096  RH  081%=      5-min Rain = 0
KRO1 100310Z 16006KT 13/10 A3012 RMK A01 T01250096  RH  083%=      5-min Rain = 0
KRO1 100311Z 16006KT 12/10 A3012 RMK A01 T01230097  RH  084%=      5-min Rain = 0
KRO1 100312Z 16004KT 12/10 A3012 RMK A01 T01220098  RH  085%=      5-min Rain = 0
KRO1 100313Z 16005KT 12/10 A3012 RMK A01 T01220098  RH  085%=      5-min Rain = 0
KRO1 100314Z 15006KT 12/10 A3012 RMK A01 T01220098  RH  085%=      5-min Rain = 0
KRO1 100315Z 16007KT 12/10 A3012 RMK A01 T01210098  RH  086%=      5-min Rain = 0
KRO1 100316Z 16006KT 12/10 A3012 RMK A01 T01200098  RH  087%=      5-min Rain = 0
KRO1 100317Z 16006KT 12/10 A3012 RMK A01 T01190098  RH  087%=      5-min Rain = 0
KRO1 100318Z 16006KT 12/10 A3011 RMK A01 T01180098  RH  087%=      5-min Rain = 0
KRO1 100319Z 16007KT 12/10 A3011 RMK A01 T01170097  RH  088%=      5-min Rain = 0
KRO1 100320Z 16006KT 12/10 A3011 RMK A01 T01160098  RH  088%=      5-min Rain = 0
KRO1 100321Z 17006KT 12/10 A3011 RMK A01 T01160098  RH  089%=      5-min Rain = 0
KRO1 100322Z 18005KT 12/10 A3011 RMK A01 T01150098  RH  089%=      5-min Rain = 0
KRO1 100323Z 18005KT 12/10 A3011 RMK A01 T01150098  RH  089%=      5-min Rain = 0
KRO1 100324Z 19004KT 11/10 A3011 RMK A01 T01140097  RH  089%=      5-min Rain = 0
KRO1 100325Z 19004KT 11/10 A3011 RMK A01 T01140097  RH  089%=      5-min Rain = 0
KRO1 100326Z 19004KT 11/10 A3012 RMK A01 T01130096  RH  089%=      5-min Rain = 0
KRO1 100327Z 19005KT 11/10 A3012 RMK A01 T01130096  RH  090%=      5-min Rain = 0
KRO1 100328Z 19005KT 11/10 A3012 RMK A01 T01130097  RH  090%=      5-min Rain = 0
KRO1 100329Z 19005KT 11/10 A3012 RMK A01 T01130096  RH  090%=      5-min Rain = 0
KRO1 100330Z 19004KT 11/10 A3012 RMK A01 T01130096  RH  089%=      5-min Rain = 0
KRO1 100331Z 19005KT 11/10 A3012 RMK A01 T01130096  RH  090%=      5-min Rain = 0
KRO1 100332Z 19005KT 11/10 A3012 RMK A01 T01130096  RH  090%=      5-min Rain = 0
KRO1 100333Z 19006KT 11/10 A3012 RMK A01 T01130096  RH  089%=      5-min Rain = 0
KRO1 100334Z 19006KT 11/10 A3012 RMK A01 T01130096  RH  089%=      5-min Rain = 0
KRO1 100335Z 19007KT 12/10 A3012 RMK A01 T01150097  RH  089%=      5-min Rain = 0
KRO1 100336Z 19007KT 12/10 A3012 RMK A01 T01150097  RH  089%=      5-min Rain = 0
KRO1 100337Z 19008KT 12/10 A3012 RMK A01 T01160098  RH  088%=      5-min Rain = 0
KRO1 100338Z 19008KT 12/10 A3012 RMK A01 T01170098  RH  088%=      5-min Rain = 0
KRO1 100339Z 20008KT 12/10 A3012 RMK A01 T01190098  RH  087%=      5-min Rain = 0
KRO1 100340Z 20007KT 12/10 A3012 RMK A01 T01200098  RH  087%=      5-min Rain = 0
KRO1 100341Z 20007KT 12/10 A3012 RMK A01 T01210099  RH  086%=      5-min Rain = 0
KRO1 100342Z 18006KT 12/10 A3012 RMK A01 T01220099  RH  086%=      5-min Rain = 0
KRO1 100343Z 18005KT 12/10 A3012 RMK A01 T01220099  RH  086%=      5-min Rain = 0
KRO1 100344Z 20007KT 12/10 A3012 RMK A01 T01220098  RH  086%=      5-min Rain = 0
KRO1 100345Z 20009KT 12/10 A3011 RMK A01 T01220098  RH  085%=      5-min Rain = 0
KRO1 100346Z 21009KT 12/10 A3011 RMK A01 T01220098  RH  085%=      5-min Rain = 0
KRO1 100347Z 21008KT 12/10 A3011 RMK A01 T01230098  RH  085%=      5-min Rain = 0
KRO1 100348Z 21008KT 12/10 A3011 RMK A01 T01240098  RH  084%=      5-min Rain = 0
KRO1 100349Z 21007KT 13/10 A3011 RMK A01 T01250098  RH  084%=      5-min Rain = 0
KRO1 100350Z 21006KT 13/10 A3011 RMK A01 T01250098  RH  084%=      5-min Rain = 0
KRO1 100351Z 19005KT 13/10 A3011 RMK A01 T01250098  RH  084%=      5-min Rain = 0
KRO1 100352Z 19005KT 12/10 A3011 RMK A01 T01240098  RH  084%=      5-min Rain = 0
KRO1 100353Z 21006KT 12/10 A3011 RMK A01 T01240098  RH  084%=      5-min Rain = 0
KRO1 100354Z 21006KT 12/10 A3011 RMK A01 T01230097  RH  084%=      5-min Rain = 0
KRO1 100355Z 20005KT 12/10 A3011 RMK A01 T01230097  RH  084%=      5-min Rain = 0
KRO1 100356Z 20006KT 12/10 A3011 RMK A01 T01230097  RH  084%=      5-min Rain = 0
KRO1 100357Z 20006KT 12/10 A3011 RMK A01 T01220096  RH  084%=      5-min Rain = 0
KRO1 100358Z 20006KT 12/10 A3011 RMK A01 T01220096  RH  084%=      5-min Rain = 0
KRO1 100359Z 20006KT 12/10 A3011 RMK A01 T01210096  RH  084%=      5-min Rain = 0
KRO1 100400Z 20005KT 12/10 A3011 RMK A01 T01200095  RH  085%=      5-min Rain = 0
KRO1 100401Z 20006KT 12/10 A3011 RMK A01 T01200096  RH  085%=      5-min Rain = 0
KRO1 100402Z 20005KT 12/10 A3011 RMK A01 T01200096  RH  085%=      5-min Rain = 0
KRO1 100403Z 19005KT 12/10 A3011 RMK A01 T01200096  RH  085%=      5-min Rain = 0
KRO1 100404Z 20006KT 12/10 A3011 RMK A01 T01190096  RH  085%=      5-min Rain = 0
KRO1 100405Z 19006KT 12/10 A3011 RMK A01 T01190095  RH  085%=      5-min Rain = 0
KRO1 100406Z 19006KT 12/10 A3011 RMK A01 T01180095  RH  086%=      5-min Rain = 0
KRO1 100407Z 20006KT 12/09 A3011 RMK A01 T01180094  RH  086%=      5-min Rain = 0
KRO1 100408Z 19006KT 12/09 A3011 RMK A01 T01170094  RH  086%=      5-min Rain = 0
KRO1 100409Z 19006KT 12/09 A3011 RMK A01 T01170094  RH  086%=      5-min Rain = 0
KRO1 100410Z 20006KT 12/09 A3011 RMK A01 T01160094  RH  086%=      5-min Rain = 0
KRO1 100411Z 20006KT 12/09 A3011 RMK A01 T01160093  RH  086%=      5-min Rain = 0
KRO1 100412Z 20006KT 12/09 A3011 RMK A01 T01160094  RH  087%=      5-min Rain = 0
KRO1 100413Z 20006KT 12/09 A3011 RMK A01 T01150094  RH  087%=      5-min Rain = 0
KRO1 100414Z 20006KT 12/09 A3011 RMK A01 T01150094  RH  087%=      5-min Rain = 0
KRO1 100415Z 19006KT 12/09 A3011 RMK A01 T01150094  RH  087%=      5-min Rain = 0
KRO1 100416Z 19007KT 12/09 A3011 RMK A01 T01150094  RH  087%=      5-min Rain = 0
KRO1 100417Z 19007KT 12/09 A3011 RMK A01 T01150094  RH  087%=      5-min Rain = 0
KRO1 100418Z 19007KT 12/09 A3011 RMK A01 T01160094  RH  086%=      5-min Rain = 0
KRO1 100419Z 19007KT 12/09 A3011 RMK A01 T01150093  RH  086%=      5-min Rain = 0
KRO1 100420Z 19007KT 12/09 A3011 RMK A01 T01150094  RH  087%=      5-min Rain = 0
KRO1 100421Z 19007KT 12/09 A3011 RMK A01 T01160094  RH  086%=      5-min Rain = 0
KRO1 100422Z 19007KT 12/09 A3011 RMK A01 T01160094  RH  086%=      5-min Rain = 0
KRO1 100423Z 19007KT 12/09 A3011 RMK A01 T01160094  RH  086%=      5-min Rain = 0
KRO1 100424Z 19007KT 12/09 A3011 RMK A01 T01160094  RH  086%=      5-min Rain = 0
KRO1 100425Z 19007KT 12/09 A3011 RMK A01 T01160094  RH  086%=      5-min Rain = 0
KRO1 100426Z 19007KT 12/10 A3011 RMK A01 T01160095  RH  086%=      5-min Rain = 0
KRO1 100427Z 19007KT 12/09 A3011 RMK A01 T01160094  RH  086%=      5-min Rain = 0
KRO1 100428Z 19007KT 12/09 A3011 RMK A01 T01160094  RH  086%=      5-min Rain = 0
KRO1 100429Z 19007KT 12/09 A3011 RMK A01 T01160094  RH  086%=      5-min Rain = 0
KRO1 100430Z 19007KT 12/10 A3011 RMK A01 T01170095  RH  087%=      5-min Rain = 0
KRO1 100431Z 19007KT 12/10 A3011 RMK A01 T01170095  RH  087%=      5-min Rain = 0
KRO1 100432Z 19007KT 12/10 A3011 RMK A01 T01180096  RH  086%=      5-min Rain = 0
KRO1 100433Z 20007KT 12/10 A3011 RMK A01 T01180096  RH  086%=      5-min Rain = 0
KRO1 100434Z 20007KT 12/10 A3011 RMK A01 T01180096  RH  086%=      5-min Rain = 0
KRO1 100435Z 19007KT 12/10 A3011 RMK A01 T01190096  RH  086%=      5-min Rain = 0
KRO1 100436Z 20007KT 12/10 A3011 RMK A01 T01190096  RH  086%=      5-min Rain = 0
KRO1 100437Z 20007KT 12/10 A3011 RMK A01 T01190097  RH  086%=      5-min Rain = 0
KRO1 100438Z 19007KT 12/10 A3011 RMK A01 T01190097  RH  086%=      5-min Rain = 0
KRO1 100439Z 19007KT 12/10 A3011 RMK A01 T01190097  RH  086%=      5-min Rain = 0
KRO1 100440Z 19007KT 12/10 A3011 RMK A01 T01190097  RH  086%=      5-min Rain = 0
KRO1 100441Z 20007KT 12/10 A3011 RMK A01 T01190097  RH  086%=      5-min Rain = 0
KRO1 100442Z 19007KT 12/10 A3011 RMK A01 T01190097  RH  086%=      5-min Rain = 0
KRO1 100443Z 20007KT 12/10 A3011 RMK A01 T01190097  RH  086%=      5-min Rain = 0
KRO1 100444Z 20008KT 12/10 A3011 RMK A01 T01200097  RH  086%=      5-min Rain = 0
KRO1 100445Z 20007KT 12/10 A3011 RMK A01 T01200098  RH  086%=      5-min Rain = 0
KRO1 100446Z 20007KT 12/10 A3011 RMK A01 T01200097  RH  086%=      5-min Rain = 0
KRO1 100447Z 20007KT 12/10 A3011 RMK A01 T01200097  RH  086%=      5-min Rain = 0
KRO1 100448Z 20007KT 12/10 A3011 RMK A01 T01210098  RH  086%=      5-min Rain = 0
KRO1 100449Z 20007KT 12/10 A3011 RMK A01 T01200098  RH  086%=      5-min Rain = 0
KRO1 100450Z 20007KT 12/10 A3011 RMK A01 T01200097  RH  086%=      5-min Rain = 0
KRO1 100451Z 19007KT 12/10 A3011 RMK A01 T01210098  RH  086%=      5-min Rain = 0
KRO1 100452Z 19007KT 12/10 A3011 RMK A01 T01210098  RH  086%=      5-min Rain = 0
KRO1 100453Z 20007KT 12/10 A3011 RMK A01 T01210099  RH  086%=      5-min Rain = 0
KRO1 100454Z 20007KT 12/10 A3011 RMK A01 T01210098  RH  086%=      5-min Rain = 0
KRO1 100455Z 20007KT 12/10 A3011 RMK A01 T01210098  RH  086%=      5-min Rain = 0
KRO1 100456Z 20007KT 12/10 A3011 RMK A01 T01210098  RH  086%=      5-min Rain = 0
KRO1 100457Z 20007KT 12/10 A3011 RMK A01 T01210098  RH  086%=      5-min Rain = 0
KRO1 100458Z 19006KT 12/10 A3011 RMK A01 T01210098  RH  086%=      5-min Rain = 0
KRO1 100459Z 19007KT 12/10 A3011 RMK A01 T01200098  RH  086%=      5-min Rain = 0
KRO1 100500Z 19006KT 12/10 A3011 RMK A01 T01200098  RH  086%=      5-min Rain = 0
KRO1 100501Z 19006KT 12/10 A3011 RMK A01 T01200098  RH  086%=      5-min Rain = 0
KRO1 100502Z 19006KT 12/10 A3011 RMK A01 T01190097  RH  086%=      5-min Rain = 0
KRO1 100503Z 19005KT 12/10 A3011 RMK A01 T01180097  RH  087%=      5-min Rain = 0
KRO1 100504Z 19005KT 12/10 A3011 RMK A01 T01180097  RH  087%=      5-min Rain = 0
KRO1 100505Z 19005KT 12/10 A3011 RMK A01 T01170097  RH  087%=      5-min Rain = 0
KRO1 100506Z 19005KT 12/10 A3011 RMK A01 T01170096  RH  087%=      5-min Rain = 0
KRO1 100507Z 19006KT 12/10 A3011 RMK A01 T01160096  RH  087%=      5-min Rain = 0
KRO1 100508Z 19005KT 12/10 A3011 RMK A01 T01160096  RH  088%=      5-min Rain = 0
KRO1 100509Z 19005KT 12/10 A3011 RMK A01 T01150096  RH  088%=      5-min Rain = 0
KRO1 100510Z 19005KT 12/10 A3011 RMK A01 T01150096  RH  088%=      5-min Rain = 0
KRO1 100511Z 19005KT 11/10 A3011 RMK A01 T01140095  RH  088%=      5-min Rain = 0
KRO1 100512Z 19005KT 11/10 A3011 RMK A01 T01140095  RH  088%=      5-min Rain = 0
KRO1 100513Z 20005KT 11/10 A3011 RMK A01 T01130095  RH  089%=      5-min Rain = 0
KRO1 100514Z 19005KT 11/10 A3011 RMK A01 T01130095  RH  089%=      5-min Rain = 0
KRO1 100515Z 19005KT 11/10 A3011 RMK A01 T01130095  RH  089%=      5-min Rain = 0
KRO1 100516Z 20005KT 11/10 A3011 RMK A01 T01120095  RH  089%=      5-min Rain = 0
KRO1 100517Z 20006KT 11/10 A3011 RMK A01 T01120095  RH  089%=      5-min Rain = 0
KRO1 100518Z 19006KT 11/10 A3011 RMK A01 T01120095  RH  089%=      5-min Rain = 0
KRO1 100519Z 20006KT 11/10 A3011 RMK A01 T01120096  RH  090%=      5-min Rain = 0
KRO1 100520Z 20006KT 11/10 A3011 RMK A01 T01120096  RH  090%=      5-min Rain = 0
KRO1 100521Z 20006KT 11/10 A3011 RMK A01 T01120096  RH  090%=      5-min Rain = 0
KRO1 100522Z 20006KT 11/10 A3011 RMK A01 T01120096  RH  090%=      5-min Rain = 0
KRO1 100523Z 20006KT 11/10 A3011 RMK A01 T01120096  RH  090%=      5-min Rain = 0
KRO1 100524Z 20006KT 11/10 A3011 RMK A01 T01120096  RH  090%=      5-min Rain = 0
KRO1 100525Z 20006KT 11/10 A3011 RMK A01 T01120096  RH  090%=      5-min Rain = 0
KRO1 100526Z 20006KT 11/10 A3011 RMK A01 T01120096  RH  089%=      5-min Rain = 0
KRO1 100527Z 20005KT 11/10 A3011 RMK A01 T01120096  RH  090%=      5-min Rain = 0
KRO1 100528Z 19005KT 11/10 A3011 RMK A01 T01120096  RH  090%=      5-min Rain = 0
KRO1 100529Z 19006KT 11/10 A3011 RMK A01 T01120096  RH  090%=      5-min Rain = 0
KRO1 100530Z 20006KT 11/10 A3011 RMK A01 T01120096  RH  090%=      5-min Rain = 0
KRO1 100531Z 20006KT 11/10 A3011 RMK A01 T01120096  RH  090%=      5-min Rain = 0
KRO1 100532Z 19006KT 11/10 A3011 RMK A01 T01120096  RH  090%=      5-min Rain = 0
KRO1 100533Z 20006KT 11/10 A3011 RMK A01 T01120096  RH  090%=      5-min Rain = 0
KRO1 100534Z 20007KT 11/10 A301 RMK A01 T01120097  RH  090%=      5-min Rain = 0
KRO1 100535Z 20007KT 11/10 A301 RMK A01 T01130097  RH  090%=      5-min Rain = 0
KRO1 100536Z 20007KT 11/10 A301 RMK A01 T01130097  RH  090%=      5-min Rain = 0
KRO1 100537Z 20007KT 11/10 A301 RMK A01 T01130098  RH  090%=      5-min Rain = 0
KRO1 100538Z 20007KT 11/10 A301 RMK A01 T01130098  RH  090%=      5-min Rain = 0
KRO1 100539Z 20007KT 11/10 A301 RMK A01 T01140098  RH  090%=      5-min Rain = 0
KRO1 100540Z 20007KT 11/10 A301 RMK A01 T01140098  RH  090%=      5-min Rain = 0
KRO1 100541Z 20007KT 11/10 A301 RMK A01 T01140098  RH  090%=      5-min Rain = 0
KRO1 100542Z 20008KT 11/10 A301 RMK A01 T01140098  RH  090%=      5-min Rain = 0
KRO1 100543Z 20008KT 11/10 A301 RMK A01 T01140098  RH  090%=      5-min Rain = 0
KRO1 100544Z 20007KT 11/10 A301 RMK A01 T01140098  RH  090%=      5-min Rain = 0
KRO1 100545Z 20007KT 11/10 A301 RMK A01 T01140099  RH  090%=      5-min Rain = 0
KRO1 100546Z 20007KT 12/10 A301 RMK A01 T01150099  RH  090%=      5-min Rain = 0
KRO1 100547Z 20006KT 12/10 A301 RMK A01 T01150099  RH  090%=      5-min Rain = 0
KRO1 100548Z 20006KT 12/10 A301 RMK A01 T01150098  RH  090%=      5-min Rain = 0
KRO1 100549Z 21005KT 11/10 A301 RMK A01 T01140098  RH  090%=      5-min Rain = 0
KRO1 100550Z 21005KT 11/10 A301 RMK A01 T01130097  RH  090%=      5-min Rain = 0
KRO1 100551Z 20005KT 11/10 A301 RMK A01 T01130097  RH  090%=      5-min Rain = 0
KRO1 100552Z 20006KT 11/10 A301 RMK A01 T01120096  RH  090%=      5-min Rain = 0
KRO1 100553Z 20006KT 11/10 A301 RMK A01 T01110096  RH  090%=      5-min Rain = 0
KRO1 100554Z 20006KT 11/10 A301 RMK A01 T01100096  RH  091%=      5-min Rain = 0
KRO1 100555Z 19007KT 11/10 A301 RMK A01 T01100096  RH  091%=      5-min Rain = 0
KRO1 100556Z 19008KT 11/10 A301 RMK A01 T01100097  RH  092%=      5-min Rain = 0
KRO1 100557Z 19008KT 11/10 A301 RMK A01 T01110098  RH  092%=      5-min Rain = 0
KRO1 100558Z 19008KT 11/10 A301 RMK A01 T01130099  RH  092%=      5-min Rain = 0
KRO1 100559Z 19008KT 11/10 A301 RMK A01 T01140100  RH  091%=      5-min Rain = 0

Page generated in 0.0838 seconds.